Time,TemperatureF,DewpointF,PressureIn,WindDirection,WindDirectionDegrees,WindSpeedMPH,WindSpeedGustMPH,Humidity,HourlyPrecipIn,Conditions,Clouds,dailyrainin,SoftwareType,DateUTC
2013-06-16 00:01:00,71.2,62.9,30.01,SSW,211,0.0,0.0,75,0.00,,,0.00,Wunderground v.1.15,2013-06-16 04:01:00,
2013-06-16 00:02:00,71.2,62.9,30.01,SSW,211,0.0,0.0,75,0.00,,,0.00,Wunderground v.1.15,2013-06-16 04:02:00,
2013-06-16 00:06:00,71.2,62.9,30.01,SSW,210,1.0,1.0,75,0.00,,,0.00,Wunderground v.1.15,2013-06-16 04:06:00,
2013-06-16 00:07:00,71.2,62.9,30.01,SSW,211,0.0,1.0,75,0.00,,,0.00,Wunderground v.1.15,2013-06-16 04:07:00,
2013-06-16 00:08:00,71.2,62.5,30.01,SSW,211,0.0,1.0,74,0.00,,,0.00,Wunderground v.1.15,2013-06-16 04:08:00,
2013-06-16 00:10:00,71.2,62.5,30.01,SSW,211,0.0,0.0,74,0.00,,,0.00,Wunderground v.1.15,2013-06-16 04:10:00,
2013-06-16 00:13:00,71.3,62.6,30.01,SSW,211,0.0,0.0,74,0.00,,,0.00,Wunderground v.1.15,2013-06-16 04:13:00,
2013-06-16 00:14:00,71.3,62.6,30.01,SSW,211,0.0,0.0,74,0.00,,,0.00,Wunderground v.1.15,2013-06-16 04:14:00,
2013-06-16 00:17:00,71.3,62.2,30.01,SSW,211,0.0,0.0,73,0.00,,,0.00,Wunderground v.1.15,2013-06-16 04:17:00,
2013-06-16 00:19:00,71.3,62.6,30.01,SSW,211,2.0,2.0,74,0.00,,,0.00,Wunderground v.1.15,2013-06-16 04:19:00,
2013-06-16 00:23:00,71.3,63.3,30.01,SSW,210,0.0,2.0,76,0.00,,,0.00,Wunderground v.1.15,2013-06-16 04:23:00,
2013-06-16 00:24:00,71.3,63.0,30.01,SSW,211,0.0,2.0,75,0.00,,,0.00,Wunderground v.1.15,2013-06-16 04:24:00,
2013-06-16 00:25:00,71.2,62.9,30.01,SSW,211,1.0,2.0,75,0.00,,,0.00,Wunderground v.1.15,2013-06-16 04:25:00,
2013-06-16 00:26:00,71.1,62.8,30.01,SSW,210,0.0,2.0,75,0.00,,,0.00,Wunderground v.1.15,2013-06-16 04:26:00,
2013-06-16 00:29:00,71.0,62.7,30.01,SSW,211,1.0,2.0,75,0.00,,,0.00,Wunderground v.1.15,2013-06-16 04:29:00,
2013-06-16 00:30:00,71.0,62.7,30.01,SSW,210,0.0,1.0,75,0.00,,,0.00,Wunderground v.1.15,2013-06-16 04:30:00,
2013-06-16 00:32:00,70.9,62.6,30.01,SSW,210,1.0,1.0,75,0.00,,,0.00,Wunderground v.1.15,2013-06-16 04:32:00,
2013-06-16 00:35:00,70.8,62.5,30.01,SSW,211,1.0,1.0,75,0.00,,,0.00,Wunderground v.1.15,2013-06-16 04:35:00,
2013-06-16 00:36:00,70.8,62.5,30.01,SSW,211,1.0,1.0,75,0.00,,,0.00,Wunderground v.1.15,2013-06-16 04:36:00,
2013-06-16 00:37:00,70.8,62.5,30.01,SSW,211,0.0,1.0,75,0.00,,,0.00,Wunderground v.1.15,2013-06-16 04:37:00,
2013-06-16 00:41:00,70.8,62.1,30.01,SSW,211,1.0,1.0,74,0.00,,,0.00,Wunderground v.1.15,2013-06-16 04:41:00,
2013-06-16 00:43:00,70.9,62.6,30.01,SSW,211,0.0,1.0,75,0.00,,,0.00,Wunderground v.1.15,2013-06-16 04:43:00,
2013-06-16 00:44:00,71.0,62.3,30.01,SSW,211,1.0,1.0,74,0.00,,,0.00,Wunderground v.1.15,2013-06-16 04:44:00,
2013-06-16 00:49:00,71.2,62.1,30.01,SSW,210,1.0,1.0,73,0.00,,,0.00,Wunderground v.1.15,2013-06-16 04:49:00,
2013-06-16 00:50:00,71.3,62.2,30.01,SSW,210,0.0,1.0,73,0.00,,,0.00,Wunderground v.1.15,2013-06-16 04:50:00,
2013-06-16 00:54:00,71.4,61.9,30.00,SSW,211,1.0,1.0,72,0.00,,,0.00,Wunderground v.1.15,2013-06-16 04:54:00,
2013-06-16 00:56:00,71.6,62.1,30.00,SSW,211,0.0,1.0,72,0.00,,,0.00,Wunderground v.1.15,2013-06-16 04:56:00,
2013-06-16 01:00:00,71.6,62.1,30.00,SSW,211,0.0,0.0,72,0.00,,,0.00,Wunderground v.1.15,2013-06-16 05:00:00,
2013-06-16 01:01:00,71.6,62.1,30.00,SSW,211,0.0,0.0,72,0.00,,,0.00,Wunderground v.1.15,2013-06-16 05:01:00,
2013-06-16 01:02:00,71.6,62.1,30.00,SSW,211,0.0,0.0,72,0.00,,,0.00,Wunderground v.1.15,2013-06-16 05:02:00,
2013-06-16 01:03:00,71.6,62.1,30.00,SSW,211,0.0,0.0,72,0.00,,,0.00,Wunderground v.1.15,2013-06-16 05:03:00,
2013-06-16 01:06:00,71.6,62.1,30.00,SSW,211,1.0,1.0,72,0.00,,,0.00,Wunderground v.1.15,2013-06-16 05:06:00,
2013-06-16 01:07:00,71.7,62.2,30.00,SSW,211,0.0,1.0,72,0.00,,,0.00,Wunderground v.1.15,2013-06-16 05:07:00,
2013-06-16 01:09:00,71.6,62.5,30.00,SSW,211,0.0,0.0,73,0.00,,,0.00,Wunderground v.1.15,2013-06-16 05:09:00,
2013-06-16 01:10:00,71.6,62.1,30.00,SSW,210,1.0,1.0,72,0.00,,,0.00,Wunderground v.1.15,2013-06-16 05:10:00,
2013-06-16 01:12:00,71.6,62.1,30.00,SSW,210,1.0,1.0,72,0.00,,,0.00,Wunderground v.1.15,2013-06-16 05:12:00,
2013-06-16 01:13:00,71.6,62.1,30.00,SSW,211,3.0,3.0,72,0.00,,,0.00,Wunderground v.1.15,2013-06-16 05:13:00,
2013-06-16 01:14:00,71.6,62.1,30.00,SSW,210,0.0,3.0,72,0.00,,,0.00,Wunderground v.1.15,2013-06-16 05:14:00,
2013-06-16 01:17:00,71.5,62.0,30.00,SSW,211,0.0,3.0,72,0.00,,,0.00,Wunderground v.1.15,2013-06-16 05:17:00,
2013-06-16 01:20:00,71.5,62.4,30.00,SSW,211,1.0,1.0,73,0.00,,,0.00,Wunderground v.1.15,2013-06-16 05:20:00,
2013-06-16 01:21:00,71.5,62.0,30.00,SSW,210,0.0,1.0,72,0.00,,,0.00,Wunderground v.1.15,2013-06-16 05:21:00,
2013-06-16 01:22:00,71.5,62.0,30.00,SSW,210,0.0,1.0,72,0.00,,,0.00,Wunderground v.1.15,2013-06-16 05:22:00,
2013-06-16 01:24:00,71.5,62.0,30.00,SSW,210,0.0,1.0,72,0.00,,,0.00,Wunderground v.1.15,2013-06-16 05:24:00,
2013-06-16 01:26:00,71.6,62.1,30.00,SSW,211,1.0,2.0,72,0.00,,,0.00,Wunderground v.1.15,2013-06-16 05:26:00,
2013-06-16 01:27:00,71.6,62.1,30.00,SSW,211,1.0,2.0,72,0.00,,,0.00,Wunderground v.1.15,2013-06-16 05:27:00,
2013-06-16 01:28:00,71.7,62.2,30.00,SSW,210,0.0,2.0,72,0.00,,,0.00,Wunderground v.1.15,2013-06-16 05:28:00,
2013-06-16 01:33:00,71.9,62.8,30.00,SSW,210,1.0,1.0,73,0.00,,,0.00,Wunderground v.1.15,2013-06-16 05:33:00,
2013-06-16 01:35:00,72.0,62.5,30.00,SSW,211,1.0,3.0,72,0.00,,,0.00,Wunderground v.1.15,2013-06-16 05:35:00,
2013-06-16 01:37:00,72.0,62.5,30.00,SSW,210,2.0,3.0,72,0.00,,,0.00,Wunderground v.1.15,2013-06-16 05:37:00,
2013-06-16 01:38:00,72.1,62.6,30.00,SSW,211,3.0,3.0,72,0.00,,,0.00,Wunderground v.1.15,2013-06-16 05:38:00,
2013-06-16 01:39:00,72.2,62.3,30.00,SSW,211,5.0,5.0,71,0.00,,,0.00,Wunderground v.1.15,2013-06-16 05:39:00,
2013-06-16 01:41:00,72.5,62.6,30.00,SSW,210,0.0,2.0,71,0.00,,,0.00,Wunderground v.1.15,2013-06-16 05:41:00,
2013-06-16 01:44:00,72.6,62.7,30.00,SSW,211,7.0,7.0,71,0.00,,,0.00,Wunderground v.1.15,2013-06-16 05:44:00,
2013-06-16 01:46:00,72.8,62.8,30.00,SSW,210,2.0,7.0,71,0.00,,,0.00,Wunderground v.1.15,2013-06-16 05:46:00,
2013-06-16 01:47:00,72.9,62.5,30.00,SSW,211,0.0,7.0,70,0.00,,,0.00,Wunderground v.1.15,2013-06-16 05:47:00,
2013-06-16 01:51:00,73.3,62.5,30.00,SSW,211,2.0,5.0,69,0.00,,,0.00,Wunderground v.1.15,2013-06-16 05:51:00,
2013-06-16 01:52:00,73.5,63.1,30.00,SSW,210,4.0,5.0,70,0.00,,,0.00,Wunderground v.1.15,2013-06-16 05:52:00,
2013-06-16 01:53:00,73.5,62.7,30.00,SSW,211,3.0,5.0,69,0.00,,,0.00,Wunderground v.1.15,2013-06-16 05:53:00,
2013-06-16 01:57:00,73.7,62.5,30.01,SSW,210,2.0,5.0,68,0.00,,,0.00,Wunderground v.1.15,2013-06-16 05:57:00,
2013-06-16 01:58:00,73.8,63.0,30.01,SSW,210,2.0,5.0,69,0.00,,,0.00,Wunderground v.1.15,2013-06-16 05:58:00,
2013-06-16 02:01:00,73.8,62.6,30.00,SSW,210,1.0,2.0,68,0.00,,,0.00,Wunderground v.1.15,2013-06-16 06:01:00,
2013-06-16 02:02:00,73.8,62.6,30.00,SSW,210,2.0,4.0,68,0.00,,,0.00,Wunderground v.1.15,2013-06-16 06:02:00,
2013-06-16 02:03:00,73.8,62.6,30.00,SSW,211,1.0,4.0,68,0.00,,,0.00,Wunderground v.1.15,2013-06-16 06:03:00,
2013-06-16 02:06:00,73.9,62.7,30.00,SSW,211,1.0,5.0,68,0.00,,,0.00,Wunderground v.1.15,2013-06-16 06:06:00,
2013-06-16 02:07:00,73.9,62.7,30.00,SSW,211,1.0,5.0,68,0.00,,,0.00,Wunderground v.1.15,2013-06-16 06:07:00,
2013-06-16 02:08:00,73.9,62.7,30.00,SSW,211,2.0,5.0,68,0.00,,,0.00,Wunderground v.1.15,2013-06-16 06:08:00,
2013-06-16 02:11:00,73.8,62.6,30.00,SSW,211,0.0,3.0,68,0.00,,,0.00,Wunderground v.1.15,2013-06-16 06:11:00,
2013-06-16 02:13:00,73.8,62.6,30.00,SSW,211,1.0,4.0,68,0.00,,,0.00,Wunderground v.1.15,2013-06-16 06:13:00,
2013-06-16 02:14:00,73.7,62.5,30.00,SSW,210,3.0,4.0,68,0.00,,,0.00,Wunderground v.1.15,2013-06-16 06:14:00,
2013-06-16 02:16:00,73.7,62.9,30.00,SSW,211,1.0,4.0,69,0.00,,,0.00,Wunderground v.1.15,2013-06-16 06:16:00,
2013-06-16 02:17:00,73.7,62.5,30.00,SSW,211,1.0,4.0,68,0.00,,,0.00,Wunderground v.1.15,2013-06-16 06:17:00,
2013-06-16 02:18:00,73.6,62.4,30.00,SSW,210,1.0,4.0,68,0.00,,,0.00,Wunderground v.1.15,2013-06-16 06:18:00,
2013-06-16 02:19:00,73.6,62.8,30.01,SSW,211,1.0,4.0,69,0.00,,,0.00,Wunderground v.1.15,2013-06-16 06:19:00,
2013-06-16 02:21:00,73.6,62.8,30.00,SSW,210,0.0,3.0,69,0.00,,,0.00,Wunderground v.1.15,2013-06-16 06:21:00,
2013-06-16 02:23:00,73.5,62.7,30.00,SSW,211,0.0,3.0,69,0.00,,,0.00,Wunderground v.1.15,2013-06-16 06:23:00,
2013-06-16 02:24:00,73.5,62.7,30.00,SSW,210,1.0,3.0,69,0.00,,,0.00,Wunderground v.1.15,2013-06-16 06:24:00,
2013-06-16 02:27:00,73.3,62.5,30.00,SSW,210,1.0,3.0,69,0.00,,,0.00,Wunderground v.1.15,2013-06-16 06:27:00,
2013-06-16 02:28:00,73.3,62.5,30.00,SSW,210,0.0,3.0,69,0.00,,,0.00,Wunderground v.1.15,2013-06-16 06:28:00,
2013-06-16 02:29:00,73.3,62.5,30.00,SSW,211,1.0,3.0,69,0.00,,,0.00,Wunderground v.1.15,2013-06-16 06:29:00,
2013-06-16 02:30:00,73.2,62.4,30.00,SSW,210,1.0,1.0,69,0.00,,,0.00,Wunderground v.1.15,2013-06-16 06:30:00,
2013-06-16 02:32:00,73.2,62.4,30.00,SSW,211,0.0,6.0,69,0.00,,,0.00,Wunderground v.1.15,2013-06-16 06:32:00,
2013-06-16 02:33:00,73.2,62.4,30.00,SSW,210,0.0,6.0,69,0.00,,,0.00,Wunderground v.1.15,2013-06-16 06:33:00,
2013-06-16 02:34:00,73.1,62.3,30.00,SSW,211,0.0,6.0,69,0.00,,,0.00,Wunderground v.1.15,2013-06-16 06:34:00,
2013-06-16 02:35:00,73.1,62.3,30.00,SSW,211,0.0,6.0,69,0.00,,,0.00,Wunderground v.1.15,2013-06-16 06:35:00,
2013-06-16 02:37:00,73.1,62.7,30.00,SSW,211,0.0,6.0,70,0.00,,,0.00,Wunderground v.1.15,2013-06-16 06:37:00,
2013-06-16 02:39:00,73.0,62.2,30.00,SSW,211,0.0,6.0,69,0.00,,,0.00,Wunderground v.1.15,2013-06-16 06:39:00,
2013-06-16 02:40:00,72.9,62.5,30.00,SSW,210,0.0,0.0,70,0.00,,,0.00,Wunderground v.1.15,2013-06-16 06:40:00,
2013-06-16 02:42:00,72.8,62.4,30.00,SSW,211,0.0,1.0,70,0.00,,,0.00,Wunderground v.1.15,2013-06-16 06:42:00,
2013-06-16 02:44:00,72.6,62.3,30.00,SSW,211,0.0,1.0,70,0.00,,,0.00,Wunderground v.1.15,2013-06-16 06:44:00,
2013-06-16 02:45:00,72.5,62.2,30.00,SSW,211,0.0,1.0,70,0.00,,,0.00,Wunderground v.1.15,2013-06-16 06:45:00,
2013-06-16 02:47:00,72.4,62.1,30.00,SSW,211,0.0,2.0,70,0.00,,,0.00,Wunderground v.1.15,2013-06-16 06:47:00,
2013-06-16 02:49:00,72.2,61.9,30.00,SSW,211,0.0,2.0,70,0.00,,,0.00,Wunderground v.1.15,2013-06-16 06:49:00,
2013-06-16 02:50:00,72.2,61.9,30.00,SSW,211,0.0,2.0,70,0.00,,,0.00,Wunderground v.1.15,2013-06-16 06:50:00,
2013-06-16 02:51:00,72.1,61.8,30.00,SSW,210,0.0,2.0,70,0.00,,,0.00,Wunderground v.1.15,2013-06-16 06:51:00,
2013-06-16 02:52:00,72.1,62.2,30.00,SSW,210,0.0,2.0,71,0.00,,,0.00,Wunderground v.1.15,2013-06-16 06:52:00,
2013-06-16 02:54:00,72.0,62.1,30.00,SSW,211,0.0,2.0,71,0.00,,,0.00,Wunderground v.1.15,2013-06-16 06:54:00,
2013-06-16 02:55:00,72.0,62.1,30.00,SSW,211,0.0,2.0,71,0.00,,,0.00,Wunderground v.1.15,2013-06-16 06:55:00,
2013-06-16 02:56:00,71.9,62.0,30.00,SSW,211,0.0,2.0,71,0.00,,,0.00,Wunderground v.1.15,2013-06-16 06:56:00,
2013-06-16 02:57:00,71.8,61.9,30.00,SSW,211,0.0,2.0,71,0.00,,,0.00,Wunderground v.1.15,2013-06-16 06:57:00,
2013-06-16 02:59:00,71.7,61.8,30.00,SSW,211,0.0,0.0,71,0.00,,,0.00,Wunderground v.1.15,2013-06-16 06:59:00,
2013-06-16 03:00:00,71.6,62.1,30.00,SSW,211,0.0,0.0,72,0.00,,,0.00,Wunderground v.1.15,2013-06-16 07:00:00,
2013-06-16 03:01:00,71.6,62.1,30.00,SSW,211,0.0,0.0,72,0.00,,,0.00,Wunderground v.1.15,2013-06-16 07:01:00,
2013-06-16 03:02:00,71.5,62.0,30.00,SSW,210,0.0,2.0,72,0.00,,,0.00,Wunderground v.1.15,2013-06-16 07:02:00,
2013-06-16 03:05:00,71.4,61.9,30.00,SSW,211,0.0,2.0,72,0.00,,,0.00,Wunderground v.1.15,2013-06-16 07:05:00,
2013-06-16 03:06:00,71.3,62.2,30.00,SSW,211,0.0,2.0,73,0.00,,,0.00,Wunderground v.1.15,2013-06-16 07:06:00,
2013-06-16 03:07:00,71.3,61.8,30.00,SSW,210,0.0,2.0,72,0.00,,,0.00,Wunderground v.1.15,2013-06-16 07:07:00,
2013-06-16 03:08:00,71.3,61.8,30.00,SSW,211,1.0,2.0,72,0.00,,,0.00,Wunderground v.1.15,2013-06-16 07:08:00,
2013-06-16 03:10:00,71.3,61.8,30.00,SSW,211,1.0,1.0,72,0.00,,,0.00,Wunderground v.1.15,2013-06-16 07:10:00,
2013-06-16 03:11:00,71.3,62.2,30.00,SSW,210,0.0,1.0,73,0.00,,,0.00,Wunderground v.1.15,2013-06-16 07:11:00,
2013-06-16 03:12:00,71.2,62.1,30.00,SSW,211,0.0,1.0,73,0.00,,,0.00,Wunderground v.1.15,2013-06-16 07:12:00,
2013-06-16 03:14:00,71.2,61.7,30.00,SSW,211,0.0,1.0,72,0.00,,,0.00,Wunderground v.1.15,2013-06-16 07:14:00,
2013-06-16 03:15:00,71.2,61.7,30.00,SSW,211,0.0,1.0,72,0.00,,,0.00,Wunderground v.1.15,2013-06-16 07:15:00,
2013-06-16 03:16:00,71.2,61.7,30.00,SSW,211,0.0,1.0,72,0.00,,,0.00,Wunderground v.1.15,2013-06-16 07:16:00,
2013-06-16 03:17:00,71.2,61.7,30.00,SSW,210,0.0,1.0,72,0.00,,,0.00,Wunderground v.1.15,2013-06-16 07:17:00,
2013-06-16 03:19:00,71.1,62.0,30.00,SSW,211,0.0,1.0,73,0.00,,,0.00,Wunderground v.1.15,2013-06-16 07:19:00,
2013-06-16 03:20:00,71.1,62.0,30.00,SSW,211,0.0,0.0,73,0.00,,,0.00,Wunderground v.1.15,2013-06-16 07:20:00,
2013-06-16 03:22:00,71.1,62.0,30.00,SSW,211,0.0,0.0,73,0.00,,,0.00,Wunderground v.1.15,2013-06-16 07:22:00,
2013-06-16 03:24:00,71.0,61.9,30.00,SSW,211,0.0,0.0,73,0.00,,,0.00,Wunderground v.1.15,2013-06-16 07:24:00,
2013-06-16 03:25:00,71.0,61.9,30.00,SSW,211,0.0,2.0,73,0.00,,,0.00,Wunderground v.1.15,2013-06-16 07:25:00,
2013-06-16 03:27:00,70.9,61.8,30.00,SSW,211,0.0,2.0,73,0.00,,,0.00,Wunderground v.1.15,2013-06-16 07:27:00,
2013-06-16 03:29:00,70.9,61.8,30.00,SSW,211,0.0,0.0,73,0.00,,,0.00,Wunderground v.1.15,2013-06-16 07:29:00,
2013-06-16 03:30:00,70.9,61.8,30.00,SSW,211,0.0,0.0,73,0.00,,,0.00,Wunderground v.1.15,2013-06-16 07:30:00,
2013-06-16 03:32:00,70.9,61.8,30.00,SSW,211,0.0,0.0,73,0.00,,,0.00,Wunderground v.1.15,2013-06-16 07:32:00,
2013-06-16 03:33:00,70.9,61.8,30.00,SSW,210,0.0,1.0,73,0.00,,,0.00,Wunderground v.1.15,2013-06-16 07:33:00,
2013-06-16 03:35:00,70.9,61.8,30.00,SSW,211,0.0,3.0,73,0.00,,,0.00,Wunderground v.1.15,2013-06-16 07:35:00,
2013-06-16 03:37:00,70.9,61.8,30.00,SSW,210,0.0,3.0,73,0.00,,,0.00,Wunderground v.1.15,2013-06-16 07:37:00,
2013-06-16 03:38:00,70.9,61.8,30.00,SSW,211,0.0,3.0,73,0.00,,,0.00,Wunderground v.1.15,2013-06-16 07:38:00,
2013-06-16 03:40:00,70.9,61.8,30.00,SSW,211,0.0,0.0,73,0.00,,,0.00,Wunderground v.1.15,2013-06-16 07:40:00,
2013-06-16 03:41:00,70.9,61.8,30.00,SSW,211,0.0,0.0,73,0.00,,,0.00,Wunderground v.1.15,2013-06-16 07:41:00,
2013-06-16 03:42:00,70.9,61.8,30.00,SSW,211,0.0,0.0,73,0.00,,,0.00,Wunderground v.1.15,2013-06-16 07:42:00,
2013-06-16 03:43:00,70.9,61.8,30.00,SSW,210,0.0,0.0,73,0.00,,,0.00,Wunderground v.1.15,2013-06-16 07:43:00,
2013-06-16 03:45:00,70.8,62.1,30.00,SSW,211,0.0,1.0,74,0.00,,,0.00,Wunderground v.1.15,2013-06-16 07:45:00,
2013-06-16 03:46:00,70.8,62.1,30.00,SSW,210,0.0,1.0,74,0.00,,,0.00,Wunderground v.1.15,2013-06-16 07:46:00,
2013-06-16 03:47:00,70.8,62.1,30.01,SSW,210,0.0,1.0,74,0.00,,,0.00,Wunderground v.1.15,2013-06-16 07:47:00,
2013-06-16 03:48:00,70.8,62.1,30.00,SSW,211,0.0,1.0,74,0.00,,,0.00,Wunderground v.1.15,2013-06-16 07:48:00,
2013-06-16 03:51:00,70.8,62.1,30.00,SSW,211,0.0,1.0,74,0.00,,,0.00,Wunderground v.1.15,2013-06-16 07:51:00,
2013-06-16 03:52:00,70.7,62.0,30.00,SSW,211,0.0,1.0,74,0.00,,,0.00,Wunderground v.1.15,2013-06-16 07:52:00,
2013-06-16 03:53:00,70.7,62.0,30.01,SSW,210,0.0,1.0,74,0.00,,,0.00,Wunderground v.1.15,2013-06-16 07:53:00,
2013-06-16 03:56:00,70.6,61.9,30.00,SSW,210,0.0,1.0,74,0.00,,,0.00,Wunderground v.1.15,2013-06-16 07:56:00,
2013-06-16 03:57:00,70.6,61.9,30.00,SSW,211,0.0,1.0,74,0.00,,,0.00,Wunderground v.1.15,2013-06-16 07:57:00,
2013-06-16 03:59:00,70.5,61.8,30.00,SSW,210,0.0,1.0,74,0.00,,,0.00,Wunderground v.1.15,2013-06-16 07:59:00,
2013-06-16 04:00:00,70.5,61.8,30.00,SSW,211,0.0,0.0,74,0.00,,,0.00,Wunderground v.1.15,2013-06-16 08:00:00,
2013-06-16 04:01:00,70.5,61.8,30.00,SSW,210,0.0,0.0,74,0.00,,,0.00,Wunderground v.1.15,2013-06-16 08:01:00,
2013-06-16 04:02:00,70.4,61.7,30.00,SSW,211,0.0,0.0,74,0.00,,,0.00,Wunderground v.1.15,2013-06-16 08:02:00,
2013-06-16 04:03:00,70.4,61.7,30.00,SSW,211,0.0,0.0,74,0.00,,,0.00,Wunderground v.1.15,2013-06-16 08:03:00,
2013-06-16 04:04:00,70.4,61.7,30.00,SSW,211,0.0,0.0,74,0.00,,,0.00,Wunderground v.1.15,2013-06-16 08:04:00,
2013-06-16 04:06:00,70.3,61.6,30.00,SSW,211,0.0,0.0,74,0.00,,,0.00,Wunderground v.1.15,2013-06-16 08:06:00,
2013-06-16 04:07:00,70.3,61.6,30.00,SSW,211,0.0,0.0,74,0.00,,,0.00,Wunderground v.1.15,2013-06-16 08:07:00,
2013-06-16 04:09:00,70.2,61.9,30.00,SSW,210,0.0,0.0,75,0.00,,,0.00,Wunderground v.1.15,2013-06-16 08:09:00,
2013-06-16 04:10:00,70.2,61.9,30.00,SSW,210,0.0,0.0,75,0.00,,,0.00,Wunderground v.1.15,2013-06-16 08:10:00,
2013-06-16 04:11:00,70.1,61.8,30.00,SSW,210,0.0,0.0,75,0.00,,,0.00,Wunderground v.1.15,2013-06-16 08:11:00,
2013-06-16 04:12:00,70.1,61.8,30.00,SSW,211,0.0,0.0,75,0.00,,,0.00,Wunderground v.1.15,2013-06-16 08:12:00,
2013-06-16 04:14:00,70.0,61.7,30.00,SSW,211,0.0,0.0,75,0.00,,,0.00,Wunderground v.1.15,2013-06-16 08:14:00,
2013-06-16 04:15:00,69.9,62.0,30.00,SSW,211,0.0,1.0,76,0.00,,,0.00,Wunderground v.1.15,2013-06-16 08:15:00,
2013-06-16 04:16:00,69.9,62.0,30.00,SSW,211,0.0,1.0,76,0.00,,,0.00,Wunderground v.1.15,2013-06-16 08:16:00,
2013-06-16 04:17:00,69.8,61.9,30.00,SSW,210,0.0,1.0,76,0.00,,,0.00,Wunderground v.1.15,2013-06-16 08:17:00,
2013-06-16 04:19:00,69.8,61.9,30.00,SSW,211,1.0,1.0,76,0.00,,,0.00,Wunderground v.1.15,2013-06-16 08:19:00,
2013-06-16 04:20:00,69.8,61.9,30.00,SSW,211,0.0,0.0,76,0.00,,,0.00,Wunderground v.1.15,2013-06-16 08:20:00,
2013-06-16 04:21:00,69.7,61.8,30.00,SSW,211,0.0,0.0,76,0.00,,,0.00,Wunderground v.1.15,2013-06-16 08:21:00,
2013-06-16 04:22:00,69.7,61.8,30.00,SSW,211,1.0,1.0,76,0.00,,,0.00,Wunderground v.1.15,2013-06-16 08:22:00,
2013-06-16 04:23:00,69.7,61.8,30.00,SSW,210,0.0,1.0,76,0.00,,,0.00,Wunderground v.1.15,2013-06-16 08:23:00,
2013-06-16 04:25:00,69.6,61.7,30.00,SSW,211,0.0,1.0,76,0.00,,,0.00,Wunderground v.1.15,2013-06-16 08:25:00,
2013-06-16 04:26:00,69.5,61.6,30.00,SSW,210,0.0,1.0,76,0.00,,,0.00,Wunderground v.1.15,2013-06-16 08:26:00,
2013-06-16 04:27:00,69.5,61.6,30.00,SSW,211,0.0,1.0,76,0.00,,,0.00,Wunderground v.1.15,2013-06-16 08:27:00,
2013-06-16 04:28:00,69.5,61.6,30.00,SSW,211,0.0,1.0,76,0.00,,,0.00,Wunderground v.1.15,2013-06-16 08:28:00,
2013-06-16 04:30:00,69.5,61.2,30.00,SSW,211,0.0,2.0,75,0.00,,,0.00,Wunderground v.1.15,2013-06-16 08:30:00,
2013-06-16 04:32:00,69.5,61.6,30.00,SSW,211,0.0,2.0,76,0.00,,,0.00,Wunderground v.1.15,2013-06-16 08:32:00,
2013-06-16 04:33:00,69.5,61.6,30.00,SSW,211,0.0,3.0,76,0.00,,,0.00,Wunderground v.1.15,2013-06-16 08:33:00,
2013-06-16 04:35:00,69.7,61.4,30.00,SSW,210,0.0,3.0,75,0.00,,,0.00,Wunderground v.1.15,2013-06-16 08:35:00,
2013-06-16 04:37:00,69.8,61.5,30.00,SSW,211,1.0,3.0,75,0.00,,,0.00,Wunderground v.1.15,2013-06-16 08:37:00,
2013-06-16 04:38:00,69.8,61.5,30.00,SSW,211,0.0,3.0,75,0.00,,,0.00,Wunderground v.1.15,2013-06-16 08:38:00,
2013-06-16 04:41:00,69.9,61.6,30.00,SSW,211,0.0,1.0,75,0.00,,,0.00,Wunderground v.1.15,2013-06-16 08:41:00,
2013-06-16 04:42:00,70.0,61.7,30.00,SSW,211,0.0,1.0,75,0.00,,,0.00,Wunderground v.1.15,2013-06-16 08:42:00,
2013-06-16 04:43:00,70.0,61.7,30.00,SSW,210,2.0,2.0,75,0.00,,,0.00,Wunderground v.1.15,2013-06-16 08:43:00,
2013-06-16 04:46:00,70.0,61.7,30.00,SSW,211,0.0,3.0,75,0.00,,,0.00,Wunderground v.1.15,2013-06-16 08:46:00,
2013-06-16 04:47:00,70.1,61.8,30.01,SSW,210,0.0,3.0,75,0.00,,,0.00,Wunderground v.1.15,2013-06-16 08:47:00,
2013-06-16 04:48:00,70.1,61.8,30.00,SSW,210,0.0,3.0,75,0.00,,,0.00,Wunderground v.1.15,2013-06-16 08:48:00,
2013-06-16 04:51:00,70.1,61.8,30.01,SSW,210,0.0,0.0,75,0.00,,,0.00,Wunderground v.1.15,2013-06-16 08:51:00,
2013-06-16 04:53:00,70.0,61.7,30.01,SSW,210,0.0,0.0,75,0.00,,,0.00,Wunderground v.1.15,2013-06-16 08:53:00,
2013-06-16 04:56:00,69.9,61.6,30.01,SSW,211,0.0,1.0,75,0.00,,,0.00,Wunderground v.1.15,2013-06-16 08:56:00,
2013-06-16 04:58:00,69.9,62.0,30.01,SSW,211,0.0,1.0,76,0.00,,,0.00,Wunderground v.1.15,2013-06-16 08:58:00,
2013-06-16 04:59:00,69.9,61.6,30.01,SSW,211,1.0,1.0,75,0.00,,,0.00,Wunderground v.1.15,2013-06-16 08:59:00,
2013-06-16 05:01:00,69.7,61.8,30.01,SSW,211,0.0,1.0,76,0.00,,,0.00,Wunderground v.1.15,2013-06-16 09:01:00,
2013-06-16 05:03:00,69.7,61.8,30.01,SSW,210,0.0,1.0,76,0.00,,,0.00,Wunderground v.1.15,2013-06-16 09:03:00,
2013-06-16 05:04:00,69.6,61.7,30.01,SSW,210,0.0,1.0,76,0.00,,,0.00,Wunderground v.1.15,2013-06-16 09:04:00,
2013-06-16 05:07:00,69.4,61.9,30.01,SSW,211,0.0,1.0,77,0.00,,,0.00,Wunderground v.1.15,2013-06-16 09:07:00,
2013-06-16 05:09:00,69.2,62.0,30.01,SSW,211,0.0,1.0,78,0.00,,,0.00,Wunderground v.1.15,2013-06-16 09:09:00,
2013-06-16 05:10:00,69.1,61.9,30.01,SSW,210,1.0,1.0,78,0.00,,,0.00,Wunderground v.1.15,2013-06-16 09:10:00,
2013-06-16 05:12:00,68.9,62.1,30.01,SSW,211,0.0,1.0,79,0.00,,,0.00,Wunderground v.1.15,2013-06-16 09:12:00,
2013-06-16 05:14:00,68.6,61.8,30.01,SSW,210,0.0,1.0,79,0.00,,,0.00,Wunderground v.1.15,2013-06-16 09:14:00,
2013-06-16 05:15:00,68.5,62.1,30.01,SSW,211,1.0,1.0,80,0.00,,,0.00,Wunderground v.1.15,2013-06-16 09:15:00,
2013-06-16 05:16:00,68.4,62.0,30.02,SSW,211,0.0,1.0,80,0.00,,,0.00,Wunderground v.1.15,2013-06-16 09:16:00,
2013-06-16 05:17:00,68.2,61.8,30.02,SSW,210,0.0,1.0,80,0.00,,,0.00,Wunderground v.1.15,2013-06-16 09:17:00,
2013-06-16 05:19:00,67.8,61.8,30.02,SSW,210,0.0,1.0,81,0.00,,,0.00,Wunderground v.1.15,2013-06-16 09:19:00,
2013-06-16 05:20:00,67.7,61.7,30.02,SSW,211,0.0,0.0,81,0.00,,,0.00,Wunderground v.1.15,2013-06-16 09:20:00,
2013-06-16 05:21:00,67.5,61.8,30.02,SSW,210,0.0,0.0,82,0.00,,,0.00,Wunderground v.1.15,2013-06-16 09:21:00,
2013-06-16 05:22:00,67.4,61.7,30.02,SSW,211,0.0,0.0,82,0.00,,,0.00,Wunderground v.1.15,2013-06-16 09:22:00,
2013-06-16 05:24:00,67.1,61.4,30.02,SSW,211,0.0,0.0,82,0.00,,,0.00,Wunderground v.1.15,2013-06-16 09:24:00,
2013-06-16 05:26:00,67.0,61.3,30.02,SSW,211,0.0,0.0,82,0.00,,,0.00,Wunderground v.1.15,2013-06-16 09:26:00,
2013-06-16 05:27:00,66.8,61.5,30.02,SSW,211,0.0,0.0,83,0.00,,,0.00,Wunderground v.1.15,2013-06-16 09:27:00,
2013-06-16 05:28:00,66.7,61.4,30.02,SSW,210,0.0,0.0,83,0.00,,,0.00,Wunderground v.1.15,2013-06-16 09:28:00,
2013-06-16 05:30:00,66.5,61.2,30.02,SSW,210,0.0,0.0,83,0.00,,,0.00,Wunderground v.1.15,2013-06-16 09:30:00,
2013-06-16 05:31:00,66.4,61.1,30.02,SSW,210,0.0,0.0,83,0.00,,,0.00,Wunderground v.1.15,2013-06-16 09:31:00,
2013-06-16 05:32:00,66.2,61.2,30.02,SSW,211,0.0,0.0,84,0.00,,,0.00,Wunderground v.1.15,2013-06-16 09:32:00,
2013-06-16 05:33:00,66.1,61.1,30.02,SSW,211,0.0,0.0,84,0.00,,,0.00,Wunderground v.1.15,2013-06-16 09:33:00,
2013-06-16 05:35:00,65.9,60.9,30.02,SSW,211,0.0,0.0,84,0.00,,,0.00,Wunderground v.1.15,2013-06-16 09:35:00,
2013-06-16 05:36:00,65.8,60.8,30.02,SSW,210,0.0,0.0,84,0.00,,,0.00,Wunderground v.1.15,2013-06-16 09:36:00,
2013-06-16 05:38:00,65.7,60.7,30.02,SSW,210,0.0,0.0,84,0.00,,,0.00,Wunderground v.1.15,2013-06-16 09:38:00,
2013-06-16 05:41:00,65.5,60.9,30.02,SSW,211,0.0,0.0,85,0.00,,,0.00,Wunderground v.1.15,2013-06-16 09:41:00,
2013-06-16 05:43:00,65.3,60.7,30.02,SSW,210,0.0,0.0,85,0.00,,,0.00,Wunderground v.1.15,2013-06-16 09:43:00,
2013-06-16 05:44:00,65.3,61.0,30.02,SSW,210,0.0,0.0,86,0.00,,,0.00,Wunderground v.1.15,2013-06-16 09:44:00,
2013-06-16 05:46:00,65.2,60.9,30.02,SSW,210,0.0,0.0,86,0.00,,,0.00,Wunderground v.1.15,2013-06-16 09:46:00,
2013-06-16 05:47:00,65.1,61.1,30.02,SSW,210,0.0,0.0,87,0.00,,,0.00,Wunderground v.1.15,2013-06-16 09:47:00,
2013-06-16 05:48:00,65.0,61.0,30.02,SSW,211,0.0,0.0,87,0.00,,,0.00,Wunderground v.1.15,2013-06-16 09:48:00,
2013-06-16 05:49:00,65.0,61.0,30.02,SSW,211,0.0,0.0,87,0.00,,,0.00,Wunderground v.1.15,2013-06-16 09:49:00,
2013-06-16 05:51:00,64.9,60.9,30.02,SSW,211,1.0,1.0,87,0.00,,,0.00,Wunderground v.1.15,2013-06-16 09:51:00,
2013-06-16 05:53:00,64.8,60.8,30.02,SSW,211,0.0,1.0,87,0.00,,,0.00,Wunderground v.1.15,2013-06-16 09:53:00,
2013-06-16 05:55:00,64.6,61.0,30.02,SSW,211,0.0,1.0,88,0.00,,,0.00,Wunderground v.1.15,2013-06-16 09:55:00,
2013-06-16 05:56:00,64.5,60.9,30.02,SSW,211,0.0,1.0,88,0.00,,,0.00,Wunderground v.1.15,2013-06-16 09:56:00,
2013-06-16 05:58:00,64.5,61.2,30.02,SSW,211,1.0,2.0,89,0.00,,,0.00,Wunderground v.1.15,2013-06-16 09:58:00,
2013-06-16 06:00:00,64.4,60.8,30.02,SSW,210,0.0,0.0,88,0.00,,,0.00,Wunderground v.1.15,2013-06-16 10:00:00,
2013-06-16 06:01:00,64.3,61.0,30.03,SSW,211,0.0,1.0,89,0.00,,,0.00,Wunderground v.1.15,2013-06-16 10:01:00,
2013-06-16 06:03:00,64.3,61.0,30.03,SSW,210,0.0,1.0,89,0.00,,,0.00,Wunderground v.1.15,2013-06-16 10:03:00,
2013-06-16 06:04:00,64.2,60.9,30.03,SSW,211,0.0,1.0,89,0.00,,,0.00,Wunderground v.1.15,2013-06-16 10:04:00,
2013-06-16 06:05:00,64.2,60.9,30.03,SSW,211,0.0,1.0,89,0.00,,,0.00,Wunderground v.1.15,2013-06-16 10:05:00,
2013-06-16 06:06:00,64.1,60.8,30.03,SSW,211,0.0,1.0,89,0.00,,,0.00,Wunderground v.1.15,2013-06-16 10:06:00,
2013-06-16 06:07:00,64.1,61.1,30.03,SSW,211,0.0,1.0,90,0.00,,,0.00,Wunderground v.1.15,2013-06-16 10:07:00,
2013-06-16 06:09:00,64.1,61.1,30.03,SSW,211,0.0,1.0,90,0.00,,,0.00,Wunderground v.1.15,2013-06-16 10:09:00,
2013-06-16 06:10:00,64.0,61.0,30.03,SSW,211,0.0,0.0,90,0.00,,,0.00,Wunderground v.1.15,2013-06-16 10:10:00,
2013-06-16 06:12:00,64.0,61.0,30.03,SSW,210,0.0,0.0,90,0.00,,,0.00,Wunderground v.1.15,2013-06-16 10:12:00,
2013-06-16 06:13:00,64.0,61.0,30.03,SSW,211,0.0,0.0,90,0.00,,,0.00,Wunderground v.1.15,2013-06-16 10:13:00,
2013-06-16 06:14:00,63.9,60.9,30.03,SSW,211,1.0,1.0,90,0.00,,,0.00,Wunderground v.1.15,2013-06-16 10:14:00,
2013-06-16 06:15:00,63.9,60.9,30.02,SSW,210,0.0,1.0,90,0.00,,,0.00,Wunderground v.1.15,2013-06-16 10:15:00,
2013-06-16 06:17:00,63.9,60.9,30.03,SSW,211,0.0,1.0,90,0.00,,,0.00,Wunderground v.1.15,2013-06-16 10:17:00,
2013-06-16 06:18:00,63.8,60.8,30.03,SSW,210,0.0,1.0,90,0.00,,,0.00,Wunderground v.1.15,2013-06-16 10:18:00,
2013-06-16 06:19:00,63.8,60.8,30.03,SSW,211,1.0,1.0,90,0.00,,,0.00,Wunderground v.1.15,2013-06-16 10:19:00,
2013-06-16 06:21:00,63.8,60.8,30.03,SSW,211,1.0,1.0,90,0.00,,,0.00,Wunderground v.1.15,2013-06-16 10:21:00,
2013-06-16 06:22:00,63.8,60.8,30.03,SSW,211,2.0,2.0,90,0.00,,,0.00,Wunderground v.1.15,2013-06-16 10:22:00,
2013-06-16 06:23:00,63.8,61.1,30.03,SSW,211,1.0,2.0,91,0.00,,,0.00,Wunderground v.1.15,2013-06-16 10:23:00,
2013-06-16 06:24:00,63.8,61.1,30.03,SSW,211,0.0,2.0,91,0.00,,,0.00,Wunderground v.1.15,2013-06-16 10:24:00,
2013-06-16 06:26:00,63.8,61.1,30.03,SSW,210,1.0,2.0,91,0.00,,,0.00,Wunderground v.1.15,2013-06-16 10:26:00,
2013-06-16 06:28:00,63.8,61.1,30.03,SSW,211,1.0,2.0,91,0.00,,,0.00,Wunderground v.1.15,2013-06-16 10:28:00,
2013-06-16 06:29:00,63.9,61.2,30.03,SSW,210,1.0,2.0,91,0.00,,,0.00,Wunderground v.1.15,2013-06-16 10:29:00,
2013-06-16 06:30:00,63.9,61.2,30.03,SSW,211,2.0,2.0,91,0.00,,,0.00,Wunderground v.1.15,2013-06-16 10:30:00,
2013-06-16 06:31:00,63.9,60.9,30.03,SSW,210,1.0,3.0,90,0.00,,,0.00,Wunderground v.1.15,2013-06-16 10:31:00,
2013-06-16 06:33:00,64.0,61.0,30.03,SSW,210,0.0,3.0,90,0.00,,,0.00,Wunderground v.1.15,2013-06-16 10:33:00,
2013-06-16 06:34:00,64.0,61.0,30.03,SSW,211,0.0,3.0,90,0.00,,,0.00,Wunderground v.1.15,2013-06-16 10:34:00,
2013-06-16 06:35:00,64.0,61.0,30.03,SSW,210,0.0,3.0,90,0.00,,,0.00,Wunderground v.1.15,2013-06-16 10:35:00,
2013-06-16 06:36:00,64.0,61.0,30.03,SSW,211,0.0,3.0,90,0.00,,,0.00,Wunderground v.1.15,2013-06-16 10:36:00,
2013-06-16 06:38:00,64.1,61.1,30.03,SSW,210,2.0,3.0,90,0.00,,,0.00,Wunderground v.1.15,2013-06-16 10:38:00,
2013-06-16 06:40:00,64.1,61.1,30.04,SSW,211,1.0,2.0,90,0.00,,,0.00,Wunderground v.1.15,2013-06-16 10:40:00,
2013-06-16 06:41:00,64.2,61.2,30.03,SSW,210,0.0,2.0,90,0.00,,,0.00,Wunderground v.1.15,2013-06-16 10:41:00,
2013-06-16 06:44:00,64.3,61.0,30.04,SSW,211,0.0,2.0,89,0.00,,,0.00,Wunderground v.1.15,2013-06-16 10:44:00,
2013-06-16 06:45:00,64.4,61.1,30.04,SSW,210,0.0,2.0,89,0.00,,,0.00,Wunderground v.1.15,2013-06-16 10:45:00,
2013-06-16 06:46:00,64.4,61.4,30.04,SSW,211,0.0,2.0,90,0.00,,,0.00,Wunderground v.1.15,2013-06-16 10:46:00,
2013-06-16 06:49:00,64.5,61.5,30.04,SSW,211,0.0,2.0,90,0.00,,,0.00,Wunderground v.1.15,2013-06-16 10:49:00,
2013-06-16 06:50:00,64.5,61.5,30.04,SSW,211,0.0,0.0,90,0.00,,,0.00,Wunderground v.1.15,2013-06-16 10:50:00,
2013-06-16 06:51:00,64.5,61.2,30.04,SSW,210,0.0,1.0,89,0.00,,,0.00,Wunderground v.1.15,2013-06-16 10:51:00,
2013-06-16 06:52:00,64.6,61.6,30.04,SSW,211,0.0,1.0,90,0.00,,,0.00,Wunderground v.1.15,2013-06-16 10:52:00,
2013-06-16 06:55:00,64.6,61.3,30.04,SSW,211,0.0,1.0,89,0.00,,,0.00,Wunderground v.1.15,2013-06-16 10:55:00,
2013-06-16 06:57:00,64.7,61.4,30.04,SSW,211,0.0,1.0,89,0.00,,,0.00,Wunderground v.1.15,2013-06-16 10:57:00,
2013-06-16 06:58:00,64.7,61.4,30.04,SSW,211,0.0,1.0,89,0.00,,,0.00,Wunderground v.1.15,2013-06-16 10:58:00,
2013-06-16 07:01:00,64.7,61.7,30.04,West,275,0.0,0.0,90,0.00,,,0.00,Wunderground v.1.15,2013-06-16 11:01:00,
2013-06-16 07:02:00,64.7,61.7,30.03,West,275,0.0,1.0,90,0.00,,,0.00,Wunderground v.1.15,2013-06-16 11:02:00,
2013-06-16 07:03:00,64.7,61.7,30.03,West,275,1.0,2.0,90,0.00,,,0.00,Wunderground v.1.15,2013-06-16 11:03:00,
2013-06-16 07:06:00,64.7,61.7,30.03,West,275,0.0,2.0,90,0.00,,,0.00,Wunderground v.1.15,2013-06-16 11:06:00,
2013-06-16 07:07:00,64.7,61.4,30.04,West,275,0.0,2.0,89,0.00,,,0.00,Wunderground v.1.15,2013-06-16 11:07:00,
2013-06-16 07:08:00,64.7,61.4,30.04,West,275,0.0,2.0,89,0.00,,,0.00,Wunderground v.1.15,2013-06-16 11:08:00,
2013-06-16 07:11:00,64.7,61.7,30.03,West,275,0.0,0.0,90,0.00,,,0.00,Wunderground v.1.15,2013-06-16 11:11:00,
2013-06-16 07:12:00,64.7,61.7,30.03,West,275,0.0,0.0,90,0.00,,,0.00,Wunderground v.1.15,2013-06-16 11:12:00,
2013-06-16 07:13:00,64.7,61.7,30.04,West,275,0.0,0.0,90,0.00,,,0.00,Wunderground v.1.15,2013-06-16 11:13:00,
2013-06-16 07:14:00,64.7,61.7,30.04,West,275,0.0,0.0,90,0.00,,,0.00,Wunderground v.1.15,2013-06-16 11:14:00,
2013-06-16 07:17:00,64.8,62.1,30.04,West,275,0.0,1.0,91,0.00,,,0.00,Wunderground v.1.15,2013-06-16 11:17:00,
2013-06-16 07:18:00,64.8,62.1,30.04,West,275,0.0,1.0,91,0.00,,,0.00,Wunderground v.1.15,2013-06-16 11:18:00,
2013-06-16 07:19:00,64.8,62.1,30.04,West,275,0.0,1.0,91,0.00,,,0.00,Wunderground v.1.15,2013-06-16 11:19:00,
2013-06-16 07:22:00,64.9,62.2,30.04,West,275,0.0,1.0,91,0.00,,,0.00,Wunderground v.1.15,2013-06-16 11:22:00,
2013-06-16 07:23:00,64.9,61.9,30.04,West,275,0.0,1.0,90,0.00,,,0.00,Wunderground v.1.15,2013-06-16 11:23:00,
2013-06-16 07:24:00,64.9,61.9,30.04,West,275,0.0,1.0,90,0.00,,,0.00,Wunderground v.1.15,2013-06-16 11:24:00,
2013-06-16 07:27:00,65.0,62.0,30.04,West,275,1.0,2.0,90,0.00,,,0.00,Wunderground v.1.15,2013-06-16 11:27:00,
2013-06-16 07:28:00,65.1,62.1,30.04,West,275,0.0,2.0,90,0.00,,,0.00,Wunderground v.1.15,2013-06-16 11:28:00,
2013-06-16 07:29:00,65.2,61.9,30.04,West,275,0.0,2.0,89,0.00,,,0.00,Wunderground v.1.15,2013-06-16 11:29:00,
2013-06-16 07:32:00,65.3,62.0,30.04,West,275,0.0,1.0,89,0.00,,,0.00,Wunderground v.1.15,2013-06-16 11:32:00,
2013-06-16 07:33:00,65.4,62.4,30.04,West,275,0.0,1.0,90,0.00,,,0.00,Wunderground v.1.15,2013-06-16 11:33:00,
2013-06-16 07:34:00,65.4,62.4,30.04,West,275,0.0,1.0,90,0.00,,,0.00,Wunderground v.1.15,2013-06-16 11:34:00,
2013-06-16 07:37:00,65.6,62.6,30.04,West,275,0.0,1.0,90,0.00,,,0.00,Wunderground v.1.15,2013-06-16 11:37:00,
2013-06-16 07:38:00,65.7,62.7,30.04,West,275,1.0,1.0,90,0.00,,,0.00,Wunderground v.1.15,2013-06-16 11:38:00,
2013-06-16 07:39:00,65.7,62.4,30.04,West,275,0.0,1.0,89,0.00,,,0.00,Wunderground v.1.15,2013-06-16 11:39:00,
2013-06-16 07:43:00,65.9,62.6,30.04,West,275,0.0,2.0,89,0.00,,,0.00,Wunderground v.1.15,2013-06-16 11:43:00,
2013-06-16 07:44:00,65.9,62.6,30.04,West,275,0.0,2.0,89,0.00,,,0.00,Wunderground v.1.15,2013-06-16 11:44:00,
2013-06-16 07:48:00,66.3,63.0,30.04,West,275,0.0,3.0,89,0.00,,,0.00,Wunderground v.1.15,2013-06-16 11:48:00,
2013-06-16 07:49:00,66.3,63.0,30.04,West,275,0.0,3.0,89,0.00,,,0.00,Wunderground v.1.15,2013-06-16 11:49:00,
2013-06-16 07:50:00,66.4,62.7,30.04,West,275,0.0,2.0,88,0.00,,,0.00,Wunderground v.1.15,2013-06-16 11:50:00,
2013-06-16 07:53:00,66.6,63.3,30.04,West,275,2.0,2.0,89,0.00,,,0.00,Wunderground v.1.15,2013-06-16 11:53:00,
2013-06-16 07:54:00,66.7,63.0,30.05,West,275,4.0,4.0,88,0.00,,,0.00,Wunderground v.1.15,2013-06-16 11:54:00,
2013-06-16 07:55:00,66.7,63.0,30.05,West,275,2.0,4.0,88,0.00,,,0.00,Wunderground v.1.15,2013-06-16 11:55:00,
2013-06-16 07:59:00,67.2,63.2,30.05,West,275,0.0,4.0,87,0.00,,,0.00,Wunderground v.1.15,2013-06-16 11:59:00,
2013-06-16 08:00:00,67.3,63.6,30.05,West,275,0.0,1.0,88,0.00,,,0.00,Wunderground v.1.15,2013-06-16 12:00:00,
2013-06-16 08:01:00,67.5,63.5,30.05,West,275,0.0,1.0,87,0.00,,,0.00,Wunderground v.1.15,2013-06-16 12:01:00,
2013-06-16 08:04:00,67.8,63.1,30.05,West,275,1.0,1.0,85,0.00,,,0.00,Wunderground v.1.15,2013-06-16 12:04:00,
2013-06-16 08:05:00,68.0,64.0,30.05,West,275,3.0,3.0,87,0.00,,,0.00,Wunderground v.1.15,2013-06-16 12:05:00,
2013-06-16 08:06:00,68.1,62.4,30.05,West,275,0.0,3.0,82,0.00,,,0.00,Wunderground v.1.15,2013-06-16 12:06:00,
2013-06-16 08:09:00,68.5,63.5,30.05,West,275,0.0,3.0,84,0.00,,,0.00,Wunderground v.1.15,2013-06-16 12:09:00,
2013-06-16 08:10:00,68.7,63.7,30.05,West,275,0.0,0.0,84,0.00,,,0.00,Wunderground v.1.15,2013-06-16 12:10:00,
2013-06-16 08:11:00,68.7,63.7,30.05,West,275,1.0,1.0,84,0.00,,,0.00,Wunderground v.1.15,2013-06-16 12:11:00,
2013-06-16 08:12:00,68.8,62.7,30.05,West,275,1.0,1.0,81,0.00,,,0.00,Wunderground v.1.15,2013-06-16 12:12:00,
2013-06-16 08:14:00,69.2,63.1,30.05,West,275,1.0,2.0,81,0.00,,,0.00,Wunderground v.1.15,2013-06-16 12:14:00,
2013-06-16 08:15:00,69.4,63.7,30.05,West,275,1.0,2.0,82,0.00,,,0.00,Wunderground v.1.15,2013-06-16 12:15:00,
2013-06-16 08:16:00,69.5,63.4,30.05,West,275,1.0,2.0,81,0.00,,,0.00,Wunderground v.1.15,2013-06-16 12:16:00,
2013-06-16 08:17:00,69.6,62.8,30.05,West,275,0.0,2.0,79,0.00,,,0.00,Wunderground v.1.15,2013-06-16 12:17:00,
2013-06-16 08:19:00,69.9,63.4,30.05,West,275,0.0,2.0,80,0.00,,,0.00,Wunderground v.1.15,2013-06-16 12:19:00,
2013-06-16 08:21:00,70.0,63.5,30.05,West,275,1.0,1.0,80,0.00,,,0.00,Wunderground v.1.15,2013-06-16 12:21:00,
2013-06-16 08:22:00,70.1,63.6,30.05,West,275,2.0,2.0,80,0.00,,,0.00,Wunderground v.1.15,2013-06-16 12:22:00,
2013-06-16 08:24:00,70.3,63.5,30.05,West,275,1.0,2.0,79,0.00,,,0.00,Wunderground v.1.15,2013-06-16 12:24:00,
2013-06-16 08:25:00,70.3,63.5,30.05,West,275,2.0,3.0,79,0.00,,,0.00,Wunderground v.1.15,2013-06-16 12:25:00,
2013-06-16 08:26:00,70.4,63.6,30.05,West,275,0.0,3.0,79,0.00,,,0.00,Wunderground v.1.15,2013-06-16 12:26:00,
2013-06-16 08:27:00,70.5,63.7,30.05,West,275,1.0,3.0,79,0.00,,,0.00,Wunderground v.1.15,2013-06-16 12:27:00,
2013-06-16 08:29:00,70.7,63.1,30.05,SE,141,2.0,2.0,77,0.00,,,0.00,Wunderground v.1.15,2013-06-16 12:29:00,
2013-06-16 08:31:00,70.8,62.9,30.05,SE,141,2.0,3.0,76,0.00,,,0.00,Wunderground v.1.15,2013-06-16 12:31:00,
2013-06-16 08:32:00,71.0,63.4,30.05,SE,142,1.0,4.0,77,0.00,,,0.00,Wunderground v.1.15,2013-06-16 12:32:00,
2013-06-16 08:33:00,71.1,63.1,30.05,South,178,2.0,4.0,76,0.00,,,0.00,Wunderground v.1.15,2013-06-16 12:33:00,
2013-06-16 08:35:00,71.4,63.1,30.05,South,186,2.0,5.0,75,0.00,,,0.00,Wunderground v.1.15,2013-06-16 12:35:00,
2013-06-16 08:36:00,71.6,63.6,30.05,South,186,1.0,5.0,76,0.00,,,0.00,Wunderground v.1.15,2013-06-16 12:36:00,
2013-06-16 08:37:00,71.8,63.8,30.05,South,186,2.0,5.0,76,0.00,,,0.00,Wunderground v.1.15,2013-06-16 12:37:00,
2013-06-16 08:38:00,71.9,63.9,30.05,South,184,5.0,5.0,76,0.00,,,0.00,Wunderground v.1.15,2013-06-16 12:38:00,
2013-06-16 08:40:00,72.2,63.4,30.05,South,180,1.0,4.0,74,0.00,,,0.00,Wunderground v.1.15,2013-06-16 12:40:00,
2013-06-16 08:41:00,72.2,63.4,30.05,South,180,1.0,4.0,74,0.00,,,0.00,Wunderground v.1.15,2013-06-16 12:41:00,
2013-06-16 08:42:00,72.3,63.5,30.05,South,180,0.0,4.0,74,0.00,,,0.00,Wunderground v.1.15,2013-06-16 12:42:00,
2013-06-16 08:43:00,72.4,63.6,30.05,South,180,1.0,4.0,74,0.00,,,0.00,Wunderground v.1.15,2013-06-16 12:43:00,
2013-06-16 08:46:00,72.7,63.9,30.05,South,173,3.0,6.0,74,0.00,,,0.00,Wunderground v.1.15,2013-06-16 12:46:00,
2013-06-16 08:47:00,72.8,64.0,30.05,South,172,1.0,6.0,74,0.00,,,0.00,Wunderground v.1.15,2013-06-16 12:47:00,
2013-06-16 08:48:00,72.9,63.7,30.05,South,174,2.0,6.0,73,0.00,,,0.00,Wunderground v.1.15,2013-06-16 12:48:00,
2013-06-16 08:49:00,72.9,64.1,30.05,South,172,2.0,6.0,74,0.00,,,0.00,Wunderground v.1.15,2013-06-16 12:49:00,
2013-06-16 08:51:00,73.1,63.9,30.05,South,169,5.0,6.0,73,0.00,,,0.00,Wunderground v.1.15,2013-06-16 12:51:00,
2013-06-16 08:52:00,73.1,63.5,30.05,South,175,2.0,6.0,72,0.00,,,0.00,Wunderground v.1.15,2013-06-16 12:52:00,
2013-06-16 08:53:00,73.2,64.0,30.05,South,173,2.0,6.0,73,0.00,,,0.00,Wunderground v.1.15,2013-06-16 12:53:00,
2013-06-16 08:54:00,73.2,63.2,30.05,South,173,1.0,6.0,71,0.00,,,0.00,Wunderground v.1.15,2013-06-16 12:54:00,
2013-06-16 08:56:00,73.3,64.5,30.05,South,173,1.0,6.0,74,0.00,,,0.00,Wunderground v.1.15,2013-06-16 12:56:00,
2013-06-16 08:57:00,73.4,64.6,30.05,South,173,1.0,6.0,74,0.00,,,0.00,Wunderground v.1.15,2013-06-16 12:57:00,
2013-06-16 08:58:00,73.5,64.3,30.05,South,172,3.0,6.0,73,0.00,,,0.00,Wunderground v.1.15,2013-06-16 12:58:00,
2013-06-16 08:59:00,73.5,63.9,30.05,South,173,2.0,6.0,72,0.00,,,0.00,Wunderground v.1.15,2013-06-16 12:59:00,
2013-06-16 09:02:00,73.8,64.2,30.05,SSE,163,1.0,6.0,72,0.00,,,0.00,Wunderground v.1.15,2013-06-16 13:02:00,
2013-06-16 09:03:00,73.9,65.5,30.05,South,190,5.0,6.0,75,0.00,,,0.00,Wunderground v.1.15,2013-06-16 13:03:00,
2013-06-16 09:04:00,73.9,64.7,30.05,South,190,2.0,6.0,73,0.00,,,0.00,Wunderground v.1.15,2013-06-16 13:04:00,
2013-06-16 09:07:00,74.0,64.8,30.05,South,190,2.0,6.0,73,0.00,,,0.00,Wunderground v.1.15,2013-06-16 13:07:00,
2013-06-16 09:09:00,74.1,64.9,30.05,South,190,1.0,6.0,73,0.00,,,0.00,Wunderground v.1.15,2013-06-16 13:09:00,
2013-06-16 09:12:00,74.2,64.6,30.05,South,189,2.0,4.0,72,0.00,,,0.00,Wunderground v.1.15,2013-06-16 13:12:00,
2013-06-16 09:14:00,74.2,64.6,30.05,South,188,2.0,4.0,72,0.00,,,0.00,Wunderground v.1.15,2013-06-16 13:14:00,
2013-06-16 09:15:00,74.3,64.3,30.05,South,188,2.0,5.0,71,0.00,,,0.00,Wunderground v.1.15,2013-06-16 13:15:00,
2013-06-16 09:17:00,74.4,64.4,30.05,South,189,2.0,5.0,71,0.00,,,0.00,Wunderground v.1.15,2013-06-16 13:17:00,
2013-06-16 09:19:00,74.5,64.5,30.05,South,188,1.0,5.0,71,0.00,,,0.00,Wunderground v.1.15,2013-06-16 13:19:00,
2013-06-16 09:20:00,74.6,64.6,30.05,SSW,196,2.0,7.0,71,0.00,,,0.00,Wunderground v.1.15,2013-06-16 13:20:00,
2013-06-16 09:22:00,74.7,64.3,30.05,SSW,195,3.0,7.0,70,0.00,,,0.00,Wunderground v.1.15,2013-06-16 13:22:00,
2013-06-16 09:23:00,74.7,64.3,30.05,SSW,195,1.0,7.0,70,0.00,,,0.00,Wunderground v.1.15,2013-06-16 13:23:00,
2013-06-16 09:24:00,74.8,63.9,30.05,SSW,195,1.0,7.0,69,0.00,,,0.00,Wunderground v.1.15,2013-06-16 13:24:00,
2013-06-16 09:25:00,74.9,65.3,30.05,SSW,196,0.0,7.0,72,0.00,,,0.00,Wunderground v.1.15,2013-06-16 13:25:00,
2013-06-16 09:28:00,75.2,64.7,30.05,SSW,196,2.0,7.0,70,0.00,,,0.00,Wunderground v.1.15,2013-06-16 13:28:00,
2013-06-16 09:29:00,75.5,65.8,30.05,SSW,196,4.0,4.0,72,0.00,,,0.00,Wunderground v.1.15,2013-06-16 13:29:00,
2013-06-16 09:30:00,75.5,65.8,30.05,SSW,195,0.0,4.0,72,0.00,,,0.00,Wunderground v.1.15,2013-06-16 13:30:00,
2013-06-16 09:33:00,75.8,65.3,30.05,SSW,195,1.0,4.0,70,0.00,,,0.00,Wunderground v.1.15,2013-06-16 13:33:00,
2013-06-16 09:35:00,75.9,65.0,30.05,SSW,196,1.0,5.0,69,0.00,,,0.00,Wunderground v.1.15,2013-06-16 13:35:00,
2013-06-16 09:38:00,76.0,65.5,30.05,SSW,195,2.0,5.0,70,0.00,,,0.00,Wunderground v.1.15,2013-06-16 13:38:00,
2013-06-16 09:40:00,76.0,64.7,30.05,SSW,211,2.0,5.0,68,0.00,,,0.00,Wunderground v.1.15,2013-06-16 13:40:00,
2013-06-16 09:43:00,76.0,64.2,30.05,SSW,212,1.0,5.0,67,0.00,,,0.00,Wunderground v.1.15,2013-06-16 13:43:00,
2013-06-16 09:45:00,76.0,64.7,30.05,SSW,212,1.0,5.0,68,0.00,,,0.00,Wunderground v.1.15,2013-06-16 13:45:00,
2013-06-16 09:46:00,76.0,65.1,30.05,SSW,211,1.0,5.0,69,0.00,,,0.00,Wunderground v.1.15,2013-06-16 13:46:00,
2013-06-16 09:48:00,76.1,65.6,30.05,SSW,212,0.0,5.0,70,0.00,,,0.00,Wunderground v.1.15,2013-06-16 13:48:00,
2013-06-16 09:49:00,76.1,66.4,30.05,SSW,212,0.0,5.0,72,0.00,,,0.00,Wunderground v.1.15,2013-06-16 13:49:00,
2013-06-16 09:50:00,76.3,67.0,30.05,SSW,212,0.0,1.0,73,0.00,,,0.00,Wunderground v.1.15,2013-06-16 13:50:00,
2013-06-16 09:51:00,76.3,66.6,30.05,SSW,211,0.0,1.0,72,0.00,,,0.00,Wunderground v.1.15,2013-06-16 13:51:00,
2013-06-16 09:53:00,76.5,65.1,30.05,SSW,212,0.0,2.0,68,0.00,,,0.00,Wunderground v.1.15,2013-06-16 13:53:00,
2013-06-16 09:54:00,76.6,65.7,30.05,SSW,211,1.0,2.0,69,0.00,,,0.00,Wunderground v.1.15,2013-06-16 13:54:00,
2013-06-16 09:56:00,76.8,65.9,30.05,SSW,212,0.0,2.0,69,0.00,,,0.00,Wunderground v.1.15,2013-06-16 13:56:00,
2013-06-16 09:58:00,77.1,65.7,30.05,SSW,212,2.0,3.0,68,0.00,,,0.00,Wunderground v.1.15,2013-06-16 13:58:00,
2013-06-16 09:59:00,77.1,66.1,30.05,SSW,212,2.0,3.0,69,0.00,,,0.00,Wunderground v.1.15,2013-06-16 13:59:00,
2013-06-16 10:01:00,77.3,65.5,30.05,SSW,211,3.0,4.0,67,0.00,,,0.00,Wunderground v.1.15,2013-06-16 14:01:00,
2013-06-16 10:03:00,77.4,65.1,30.06,SSW,212,2.0,4.0,66,0.00,,,0.00,Wunderground v.1.15,2013-06-16 14:03:00,
2013-06-16 10:04:00,77.4,65.1,30.06,SSW,212,1.0,4.0,66,0.00,,,0.00,Wunderground v.1.15,2013-06-16 14:04:00,
2013-06-16 10:05:00,77.4,66.0,30.06,SSW,212,2.0,4.0,68,0.00,,,0.00,Wunderground v.1.15,2013-06-16 14:05:00,
2013-06-16 10:06:00,77.4,65.1,30.05,SSW,212,3.0,4.0,66,0.00,,,0.00,Wunderground v.1.15,2013-06-16 14:06:00,
2013-06-16 10:07:00,77.4,65.1,30.05,SSW,212,3.0,4.0,66,0.00,,,0.00,Wunderground v.1.15,2013-06-16 14:07:00,
2013-06-16 10:08:00,77.3,65.9,30.05,SSW,212,2.0,4.0,68,0.00,,,0.00,Wunderground v.1.15,2013-06-16 14:08:00,
2013-06-16 10:10:00,77.3,65.9,30.05,SSW,212,1.0,2.0,68,0.00,,,0.00,Wunderground v.1.15,2013-06-16 14:10:00,
2013-06-16 10:11:00,77.4,65.1,30.05,SSW,212,1.0,3.0,66,0.00,,,0.00,Wunderground v.1.15,2013-06-16 14:11:00,
2013-06-16 10:12:00,77.5,66.5,30.05,SSW,212,0.0,3.0,69,0.00,,,0.00,Wunderground v.1.15,2013-06-16 14:12:00,
2013-06-16 10:14:00,77.7,66.7,30.05,SSW,211,0.0,3.0,69,0.00,,,0.00,Wunderground v.1.15,2013-06-16 14:14:00,
2013-06-16 10:15:00,77.8,67.2,30.05,SSW,211,1.0,3.0,70,0.00,,,0.00,Wunderground v.1.15,2013-06-16 14:15:00,
2013-06-16 10:16:00,78.0,67.0,30.05,SSW,211,0.0,3.0,69,0.00,,,0.00,Wunderground v.1.15,2013-06-16 14:16:00,
2013-06-16 10:17:00,78.2,66.8,30.05,SSW,212,0.0,3.0,68,0.00,,,0.00,Wunderground v.1.15,2013-06-16 14:17:00,
2013-06-16 10:19:00,78.4,65.2,30.05,SSW,212,1.0,3.0,64,0.00,,,0.00,Wunderground v.1.15,2013-06-16 14:19:00,
2013-06-16 10:20:00,78.6,66.3,30.05,SSW,211,1.0,1.0,66,0.00,,,0.00,Wunderground v.1.15,2013-06-16 14:20:00,
2013-06-16 10:21:00,78.7,65.0,30.05,SSW,212,3.0,4.0,63,0.00,,,0.00,Wunderground v.1.15,2013-06-16 14:21:00,
2013-06-16 10:22:00,78.7,65.5,30.05,SSW,212,4.0,4.0,64,0.00,,,0.00,Wunderground v.1.15,2013-06-16 14:22:00,
2013-06-16 10:25:00,78.7,65.9,30.05,SSW,211,2.0,4.0,65,0.00,,,0.00,Wunderground v.1.15,2013-06-16 14:25:00,
2013-06-16 10:26:00,78.7,65.9,30.05,SSW,212,2.0,4.0,65,0.00,,,0.00,Wunderground v.1.15,2013-06-16 14:26:00,
2013-06-16 10:27:00,78.7,66.8,30.05,SSW,212,0.0,4.0,67,0.00,,,0.00,Wunderground v.1.15,2013-06-16 14:27:00,
2013-06-16 10:30:00,78.7,66.8,30.05,SSW,212,2.0,2.0,67,0.00,,,0.00,Wunderground v.1.15,2013-06-16 14:30:00,
2013-06-16 10:31:00,78.7,65.9,30.05,SSW,212,1.0,2.0,65,0.00,,,0.00,Wunderground v.1.15,2013-06-16 14:31:00,
2013-06-16 10:32:00,78.7,66.4,30.05,SSW,211,2.0,3.0,66,0.00,,,0.00,Wunderground v.1.15,2013-06-16 14:32:00,
2013-06-16 10:33:00,78.7,67.2,30.05,SSW,212,2.0,3.0,68,0.00,,,0.00,Wunderground v.1.15,2013-06-16 14:33:00,
2013-06-16 10:36:00,79.1,68.1,30.05,SSW,212,1.0,3.0,69,0.00,,,0.00,Wunderground v.1.15,2013-06-16 14:36:00,
2013-06-16 10:37:00,79.3,67.8,30.05,SSW,211,0.0,3.0,68,0.00,,,0.00,Wunderground v.1.15,2013-06-16 14:37:00,
2013-06-16 10:38:00,79.4,67.9,30.05,SSW,212,1.0,3.0,68,0.00,,,0.00,Wunderground v.1.15,2013-06-16 14:38:00,
2013-06-16 10:41:00,79.8,69.6,30.05,SSW,211,1.0,2.0,71,0.00,,,0.00,Wunderground v.1.15,2013-06-16 14:41:00,
2013-06-16 10:42:00,79.9,69.2,30.05,SSW,212,0.0,2.0,70,0.00,,,0.00,Wunderground v.1.15,2013-06-16 14:42:00,
2013-06-16 10:43:00,80.1,68.2,30.05,SSW,212,2.0,2.0,67,0.00,,,0.00,Wunderground v.1.15,2013-06-16 14:43:00,
2013-06-16 10:46:00,80.3,68.8,30.05,SSW,212,0.0,3.0,68,0.00,,,0.00,Wunderground v.1.15,2013-06-16 14:46:00,
2013-06-16 10:47:00,80.4,68.9,30.05,SSW,212,0.0,3.0,68,0.00,,,0.00,Wunderground v.1.15,2013-06-16 14:47:00,
2013-06-16 10:48:00,80.5,69.0,30.05,SSW,212,1.0,3.0,68,0.00,,,0.00,Wunderground v.1.15,2013-06-16 14:48:00,
2013-06-16 10:49:00,80.5,68.5,30.05,SSW,212,1.0,3.0,67,0.00,,,0.00,Wunderground v.1.15,2013-06-16 14:49:00,
2013-06-16 10:51:00,80.6,66.8,30.05,SSW,212,0.0,1.0,63,0.00,,,0.00,Wunderground v.1.15,2013-06-16 14:51:00,
2013-06-16 10:52:00,80.7,66.9,30.05,SSW,212,0.0,1.0,63,0.00,,,0.00,Wunderground v.1.15,2013-06-16 14:52:00,
2013-06-16 10:53:00,80.8,67.9,30.05,SSW,211,0.0,2.0,65,0.00,,,0.00,Wunderground v.1.15,2013-06-16 14:53:00,
2013-06-16 10:54:00,80.8,68.4,30.05,SSW,212,1.0,2.0,66,0.00,,,0.00,Wunderground v.1.15,2013-06-16 14:54:00,
2013-06-16 10:57:00,81.1,69.1,30.05,SSW,212,1.0,3.0,67,0.00,,,0.00,Wunderground v.1.15,2013-06-16 14:57:00,
2013-06-16 10:58:00,81.2,68.3,30.05,SSW,212,2.0,3.0,65,0.00,,,0.00,Wunderground v.1.15,2013-06-16 14:58:00,
2013-06-16 10:59:00,81.2,69.2,30.05,SSW,212,1.0,3.0,67,0.00,,,0.00,Wunderground v.1.15,2013-06-16 14:59:00,
2013-06-16 11:02:00,81.4,68.9,30.05,SSW,212,1.0,2.0,66,0.00,,,0.00,Wunderground v.1.15,2013-06-16 15:02:00,
2013-06-16 11:04:00,81.3,66.6,30.04,SSW,212,1.0,4.0,61,0.00,,,0.00,Wunderground v.1.15,2013-06-16 15:04:00,
2013-06-16 11:07:00,81.2,67.9,30.04,SSW,212,2.0,4.0,64,0.00,,,0.00,Wunderground v.1.15,2013-06-16 15:07:00,
2013-06-16 11:09:00,81.2,69.6,30.04,SSW,212,1.0,4.0,68,0.00,,,0.00,Wunderground v.1.15,2013-06-16 15:09:00,
2013-06-16 11:10:00,81.1,67.8,30.04,SW,214,6.0,6.0,64,0.00,,,0.00,Wunderground v.1.15,2013-06-16 15:10:00,
2013-06-16 11:12:00,80.8,67.9,30.04,SW,215,1.0,6.0,65,0.00,,,0.00,Wunderground v.1.15,2013-06-16 15:12:00,
2013-06-16 11:13:00,80.8,68.4,30.04,SW,214,2.0,6.0,66,0.00,,,0.00,Wunderground v.1.15,2013-06-16 15:13:00,
2013-06-16 11:14:00,80.8,67.5,30.04,SW,214,3.0,6.0,64,0.00,,,0.00,Wunderground v.1.15,2013-06-16 15:14:00,
2013-06-16 11:15:00,80.7,67.8,30.04,SW,214,1.0,6.0,65,0.00,,,0.00,Wunderground v.1.15,2013-06-16 15:15:00,
2013-06-16 11:18:00,80.7,69.2,30.04,SW,215,2.0,6.0,68,0.00,,,0.00,Wunderground v.1.15,2013-06-16 15:18:00,
2013-06-16 11:19:00,80.5,67.2,30.04,SW,214,1.0,6.0,64,0.00,,,0.00,Wunderground v.1.15,2013-06-16 15:19:00,
2013-06-16 11:20:00,80.5,67.2,30.04,SW,215,1.0,2.0,64,0.00,,,0.00,Wunderground v.1.15,2013-06-16 15:20:00,
2013-06-16 11:23:00,80.5,69.0,30.04,SW,215,2.0,3.0,68,0.00,,,0.00,Wunderground v.1.15,2013-06-16 15:23:00,
2013-06-16 11:24:00,80.5,67.2,30.04,SW,214,7.0,7.0,64,0.00,,,0.00,Wunderground v.1.15,2013-06-16 15:24:00,
2013-06-16 11:26:00,80.3,67.0,30.04,SW,214,1.0,7.0,64,0.00,,,0.00,Wunderground v.1.15,2013-06-16 15:26:00,
2013-06-16 11:28:00,80.3,67.5,30.03,SW,214,0.0,7.0,65,0.00,,,0.00,Wunderground v.1.15,2013-06-16 15:28:00,
2013-06-16 11:29:00,80.3,67.5,30.03,SW,214,1.0,7.0,65,0.00,,,0.00,Wunderground v.1.15,2013-06-16 15:29:00,
2013-06-16 11:30:00,80.4,68.0,30.03,SW,215,0.0,2.0,66,0.00,,,0.00,Wunderground v.1.15,2013-06-16 15:30:00,
2013-06-16 11:31:00,80.4,67.6,30.03,SW,214,3.0,3.0,65,0.00,,,0.00,Wunderground v.1.15,2013-06-16 15:31:00,
2013-06-16 11:33:00,80.6,68.2,30.03,SW,214,1.0,3.0,66,0.00,,,0.00,Wunderground v.1.15,2013-06-16 15:33:00,
2013-06-16 11:34:00,80.7,68.3,30.03,SW,214,1.0,3.0,66,0.00,,,0.00,Wunderground v.1.15,2013-06-16 15:34:00,
2013-06-16 11:35:00,80.8,68.4,30.03,SW,214,2.0,3.0,66,0.00,,,0.00,Wunderground v.1.15,2013-06-16 15:35:00,
2013-06-16 11:36:00,81.0,69.4,30.03,SW,214,0.0,3.0,68,0.00,,,0.00,Wunderground v.1.15,2013-06-16 15:36:00,
2013-06-16 11:39:00,81.3,69.3,30.03,SW,215,3.0,3.0,67,0.00,,,0.00,Wunderground v.1.15,2013-06-16 15:39:00,
2013-06-16 11:40:00,81.4,67.1,30.03,SW,214,0.0,2.0,62,0.00,,,0.00,Wunderground v.1.15,2013-06-16 15:40:00,
2013-06-16 11:42:00,81.5,67.7,30.03,SW,215,3.0,3.0,63,0.00,,,0.00,Wunderground v.1.15,2013-06-16 15:42:00,
2013-06-16 11:44:00,81.6,69.1,30.03,SW,214,2.0,5.0,66,0.00,,,0.00,Wunderground v.1.15,2013-06-16 15:44:00,
2013-06-16 11:45:00,81.7,66.9,30.03,SW,214,1.0,5.0,61,0.00,,,0.00,Wunderground v.1.15,2013-06-16 15:45:00,
2013-06-16 11:46:00,81.7,66.9,30.03,SW,214,0.0,5.0,61,0.00,,,0.00,Wunderground v.1.15,2013-06-16 15:46:00,
2013-06-16 11:47:00,81.7,67.4,30.03,SW,214,1.0,5.0,62,0.00,,,0.00,Wunderground v.1.15,2013-06-16 15:47:00,
2013-06-16 11:49:00,81.7,66.9,30.02,SW,214,1.0,7.0,61,0.00,,,0.00,Wunderground v.1.15,2013-06-16 15:49:00,
2013-06-16 11:51:00,81.7,67.9,30.02,SW,215,0.0,2.0,63,0.00,,,0.00,Wunderground v.1.15,2013-06-16 15:51:00,
2013-06-16 11:52:00,81.8,68.9,30.02,SW,215,1.0,2.0,65,0.00,,,0.00,Wunderground v.1.15,2013-06-16 15:52:00,
2013-06-16 11:54:00,82.0,69.5,30.02,SW,214,1.0,2.0,66,0.00,,,0.00,Wunderground v.1.15,2013-06-16 15:54:00,
2013-06-16 11:56:00,82.1,67.8,30.02,SW,215,3.0,3.0,62,0.00,,,0.00,Wunderground v.1.15,2013-06-16 15:56:00,
2013-06-16 11:58:00,82.2,68.3,30.02,SW,221,4.0,4.0,63,0.00,,,0.00,Wunderground v.1.15,2013-06-16 15:58:00,
2013-06-16 11:59:00,82.3,68.4,30.02,WSW,247,3.0,5.0,63,0.00,,,0.00,Wunderground v.1.15,2013-06-16 15:59:00,
2013-06-16 12:01:00,82.3,68.0,30.03,WSW,247,2.0,6.0,62,0.00,,,0.00,Wunderground v.1.15,2013-06-16 16:01:00,
2013-06-16 12:02:00,82.3,68.0,30.03,WSW,247,3.0,6.0,62,0.00,,,0.00,Wunderground v.1.15,2013-06-16 16:02:00,
2013-06-16 12:03:00,82.3,69.4,30.03,WSW,247,2.0,6.0,65,0.00,,,0.00,Wunderground v.1.15,2013-06-16 16:03:00,
2013-06-16 12:04:00,82.2,67.9,30.03,WSW,246,0.0,6.0,62,0.00,,,0.00,Wunderground v.1.15,2013-06-16 16:04:00,
2013-06-16 12:05:00,82.2,67.9,30.02,WSW,247,1.0,6.0,62,0.00,,,0.00,Wunderground v.1.15,2013-06-16 16:05:00,
2013-06-16 12:07:00,82.3,70.7,30.02,WSW,247,2.0,6.0,68,0.00,,,0.00,Wunderground v.1.15,2013-06-16 16:07:00,
2013-06-16 12:08:00,82.5,69.1,30.02,WSW,246,0.0,6.0,64,0.00,,,0.00,Wunderground v.1.15,2013-06-16 16:08:00,
2013-06-16 12:10:00,82.7,69.3,30.02,WSW,247,2.0,2.0,64,0.00,,,0.00,Wunderground v.1.15,2013-06-16 16:10:00,
2013-06-16 12:12:00,82.8,68.9,30.02,WSW,247,1.0,4.0,63,0.00,,,0.00,Wunderground v.1.15,2013-06-16 16:12:00,
2013-06-16 12:14:00,83.0,68.6,30.02,WSW,247,1.0,4.0,62,0.00,,,0.00,Wunderground v.1.15,2013-06-16 16:14:00,
2013-06-16 12:15:00,83.1,70.1,30.02,WSW,247,2.0,4.0,65,0.00,,,0.00,Wunderground v.1.15,2013-06-16 16:15:00,
2013-06-16 12:16:00,83.1,70.1,30.02,WSW,247,1.0,4.0,65,0.00,,,0.00,Wunderground v.1.15,2013-06-16 16:16:00,
2013-06-16 12:17:00,83.2,69.3,30.02,WSW,246,0.0,4.0,63,0.00,,,0.00,Wunderground v.1.15,2013-06-16 16:17:00,
2013-06-16 12:19:00,83.4,68.1,30.02,WSW,247,1.0,4.0,60,0.00,,,0.00,Wunderground v.1.15,2013-06-16 16:19:00,
2013-06-16 12:21:00,83.5,69.1,30.02,WSW,247,2.0,3.0,62,0.00,,,0.00,Wunderground v.1.15,2013-06-16 16:21:00,
2013-06-16 12:22:00,83.5,69.1,30.02,WSW,246,0.0,3.0,62,0.00,,,0.00,Wunderground v.1.15,2013-06-16 16:22:00,
2013-06-16 12:24:00,83.6,68.7,30.02,WSW,247,1.0,3.0,61,0.00,,,0.00,Wunderground v.1.15,2013-06-16 16:24:00,
2013-06-16 12:26:00,83.7,67.8,30.02,SW,234,2.0,7.0,59,0.00,,,0.00,Wunderground v.1.15,2013-06-16 16:26:00,
2013-06-16 12:27:00,83.5,67.7,30.01,SW,234,2.0,7.0,59,0.00,,,0.00,Wunderground v.1.15,2013-06-16 16:27:00,
2013-06-16 12:28:00,83.5,67.7,30.01,SW,234,1.0,7.0,59,0.00,,,0.00,Wunderground v.1.15,2013-06-16 16:28:00,
2013-06-16 12:29:00,83.4,69.0,30.01,SW,234,4.0,4.0,62,0.00,,,0.00,Wunderground v.1.15,2013-06-16 16:29:00,
2013-06-16 12:31:00,83.2,67.9,30.02,SW,234,2.0,5.0,60,0.00,,,0.00,Wunderground v.1.15,2013-06-16 16:31:00,
2013-06-16 12:32:00,83.2,67.9,30.01,SW,234,1.0,5.0,60,0.00,,,0.00,Wunderground v.1.15,2013-06-16 16:32:00,
2013-06-16 12:33:00,83.2,67.9,30.01,SW,234,1.0,5.0,60,0.00,,,0.00,Wunderground v.1.15,2013-06-16 16:33:00,
2013-06-16 12:35:00,83.2,69.8,30.01,SW,234,3.0,5.0,64,0.00,,,0.00,Wunderground v.1.15,2013-06-16 16:35:00,
2013-06-16 12:37:00,83.2,68.8,30.01,SW,234,1.0,5.0,62,0.00,,,0.00,Wunderground v.1.15,2013-06-16 16:37:00,
2013-06-16 12:38:00,83.3,69.8,30.01,SW,234,2.0,5.0,64,0.00,,,0.00,Wunderground v.1.15,2013-06-16 16:38:00,
2013-06-16 12:40:00,83.4,69.0,30.01,SW,234,2.0,2.0,62,0.00,,,0.00,Wunderground v.1.15,2013-06-16 16:40:00,
2013-06-16 12:42:00,83.5,68.2,30.01,SW,231,2.0,9.0,60,0.00,,,0.00,Wunderground v.1.15,2013-06-16 16:42:00,
2013-06-16 12:43:00,83.5,69.6,30.01,SW,231,1.0,9.0,63,0.00,,,0.00,Wunderground v.1.15,2013-06-16 16:43:00,
2013-06-16 12:45:00,83.6,70.1,30.01,SW,230,1.0,9.0,64,0.00,,,0.00,Wunderground v.1.15,2013-06-16 16:45:00,
2013-06-16 12:47:00,83.8,70.8,30.01,SW,231,1.0,9.0,65,0.00,,,0.00,Wunderground v.1.15,2013-06-16 16:47:00,
2013-06-16 12:48:00,83.8,71.2,30.01,SW,230,3.0,9.0,66,0.00,,,0.00,Wunderground v.1.15,2013-06-16 16:48:00,
2013-06-16 12:50:00,83.9,70.4,30.01,SW,231,0.0,2.0,64,0.00,,,0.00,Wunderground v.1.15,2013-06-16 16:50:00,
2013-06-16 12:52:00,84.2,70.2,30.01,SW,231,0.0,3.0,63,0.00,,,0.00,Wunderground v.1.15,2013-06-16 16:52:00,
2013-06-16 12:53:00,84.2,69.3,30.01,SW,230,4.0,4.0,61,0.00,,,0.00,Wunderground v.1.15,2013-06-16 16:53:00,
2013-06-16 12:54:00,84.3,70.3,30.01,SW,231,3.0,6.0,63,0.00,,,0.00,Wunderground v.1.15,2013-06-16 16:54:00,
2013-06-16 12:55:00,84.4,70.0,30.01,SW,230,2.0,6.0,62,0.00,,,0.00,Wunderground v.1.15,2013-06-16 16:55:00,
2013-06-16 12:57:00,84.5,71.0,30.01,SW,231,0.0,6.0,64,0.00,,,0.00,Wunderground v.1.15,2013-06-16 16:57:00,
2013-06-16 12:58:00,84.6,70.6,30.01,SW,231,2.0,6.0,63,0.00,,,0.00,Wunderground v.1.15,2013-06-16 16:58:00,
2013-06-16 12:59:00,84.6,69.7,30.01,SW,231,3.0,6.0,61,0.00,,,0.00,Wunderground v.1.15,2013-06-16 16:59:00,
2013-06-16 13:01:00,84.6,69.7,30.01,SW,231,3.0,3.0,61,0.00,,,0.00,Wunderground v.1.15,2013-06-16 17:01:00,
2013-06-16 13:02:00,84.6,68.2,30.01,SW,229,10.0,10.0,58,0.00,,,0.00,Wunderground v.1.15,2013-06-16 17:02:00,
2013-06-16 13:04:00,84.5,69.6,30.01,SW,229,3.0,10.0,61,0.00,,,0.00,Wunderground v.1.15,2013-06-16 17:04:00,
2013-06-16 13:05:00,84.5,70.5,30.01,SW,229,2.0,10.0,63,0.00,,,0.00,Wunderground v.1.15,2013-06-16 17:05:00,
2013-06-16 13:07:00,84.6,70.6,30.01,SW,227,7.0,10.0,63,0.00,,,0.00,Wunderground v.1.15,2013-06-16 17:07:00,
2013-06-16 13:08:00,84.5,68.1,30.01,SW,228,1.0,10.0,58,0.00,,,0.00,Wunderground v.1.15,2013-06-16 17:08:00,
2013-06-16 13:09:00,84.5,68.6,30.01,SW,228,0.0,2.0,59,0.00,,,0.00,Wunderground v.1.15,2013-06-16 17:09:00,
2013-06-16 13:10:00,84.5,69.1,30.01,SW,228,2.0,2.0,60,0.00,,,0.00,Wunderground v.1.15,2013-06-16 17:10:00,
2013-06-16 13:12:00,84.6,68.7,30.01,SW,223,3.0,10.0,59,0.00,,,0.00,Wunderground v.1.15,2013-06-16 17:12:00,
2013-06-16 13:13:00,84.6,69.7,30.01,SW,224,9.0,10.0,61,0.00,,,0.00,Wunderground v.1.15,2013-06-16 17:13:00,
2013-06-16 13:15:00,84.4,69.5,30.01,SW,219,2.0,10.0,61,0.00,,,0.00,Wunderground v.1.15,2013-06-16 17:15:00,
2013-06-16 13:18:00,84.3,68.4,30.01,SW,219,0.0,10.0,59,0.00,,,0.00,Wunderground v.1.15,2013-06-16 17:18:00,
2013-06-16 13:20:00,84.4,68.5,30.01,SW,219,0.0,2.0,59,0.00,,,0.00,Wunderground v.1.15,2013-06-16 17:20:00,
2013-06-16 13:23:00,84.7,71.6,30.00,SW,219,1.0,2.0,65,0.00,,,0.00,Wunderground v.1.15,2013-06-16 17:23:00,
2013-06-16 13:25:00,84.9,69.9,30.00,SW,219,0.0,4.0,61,0.00,,,0.00,Wunderground v.1.15,2013-06-16 17:25:00,
2013-06-16 13:26:00,85.0,70.5,30.00,SW,219,1.0,4.0,62,0.00,,,0.00,Wunderground v.1.15,2013-06-16 17:26:00,
2013-06-16 13:28:00,85.4,72.3,30.00,SW,219,1.0,4.0,65,0.00,,,0.00,Wunderground v.1.15,2013-06-16 17:28:00,
2013-06-16 13:29:00,85.4,70.9,30.00,SW,219,2.0,4.0,62,0.00,,,0.00,Wunderground v.1.15,2013-06-16 17:29:00,
2013-06-16 13:30:00,85.6,71.6,30.00,SW,219,1.0,1.0,63,0.00,,,0.00,Wunderground v.1.15,2013-06-16 17:30:00,
2013-06-16 13:31:00,85.8,69.8,30.00,SW,219,3.0,9.0,59,0.00,,,0.00,Wunderground v.1.15,2013-06-16 17:31:00,
2013-06-16 13:32:00,85.8,69.8,30.00,SW,219,1.0,9.0,59,0.00,,,0.00,Wunderground v.1.15,2013-06-16 17:32:00,
2013-06-16 13:33:00,85.9,72.3,30.00,SW,219,2.0,9.0,64,0.00,,,0.00,Wunderground v.1.15,2013-06-16 17:33:00,
2013-06-16 13:34:00,85.9,70.4,30.00,SW,219,2.0,9.0,60,0.00,,,0.00,Wunderground v.1.15,2013-06-16 17:34:00,
2013-06-16 13:35:00,86.0,71.0,30.00,SW,219,4.0,9.0,61,0.00,,,0.00,Wunderground v.1.15,2013-06-16 17:35:00,
2013-06-16 13:36:00,86.0,69.0,30.00,SW,219,2.0,9.0,57,0.00,,,0.00,Wunderground v.1.15,2013-06-16 17:36:00,
2013-06-16 13:37:00,85.9,68.9,30.00,SW,219,4.0,9.0,57,0.00,,,0.00,Wunderground v.1.15,2013-06-16 17:37:00,
2013-06-16 13:39:00,85.8,69.3,30.00,SW,218,4.0,10.0,58,0.00,,,0.00,Wunderground v.1.15,2013-06-16 17:39:00,
2013-06-16 13:40:00,85.7,70.2,30.00,SW,218,4.0,9.0,60,0.00,,,0.00,Wunderground v.1.15,2013-06-16 17:40:00,
2013-06-16 13:42:00,85.7,69.7,30.00,SW,218,1.0,9.0,59,0.00,,,0.00,Wunderground v.1.15,2013-06-16 17:42:00,
2013-06-16 13:44:00,85.4,68.9,30.00,SW,218,4.0,9.0,58,0.00,,,0.00,Wunderground v.1.15,2013-06-16 17:44:00,
2013-06-16 13:45:00,85.4,69.9,30.00,SW,218,4.0,9.0,60,0.00,,,0.00,Wunderground v.1.15,2013-06-16 17:45:00,
2013-06-16 13:47:00,85.2,70.2,30.00,SW,218,0.0,9.0,61,0.00,,,0.00,Wunderground v.1.15,2013-06-16 17:47:00,
2013-06-16 13:50:00,84.9,69.5,30.00,SW,218,2.0,4.0,60,0.00,,,0.00,Wunderground v.1.15,2013-06-16 17:50:00,
2013-06-16 13:52:00,84.8,69.9,30.00,SW,218,2.0,4.0,61,0.00,,,0.00,Wunderground v.1.15,2013-06-16 17:52:00,
2013-06-16 13:55:00,84.9,70.4,30.00,SW,218,2.0,6.0,62,0.00,,,0.00,Wunderground v.1.15,2013-06-16 17:55:00,
2013-06-16 13:56:00,85.0,70.5,29.99,SW,218,0.0,6.0,62,0.00,,,0.00,Wunderground v.1.15,2013-06-16 17:56:00,
2013-06-16 13:57:00,85.1,70.6,29.99,SW,218,4.0,6.0,62,0.00,,,0.00,Wunderground v.1.15,2013-06-16 17:57:00,
2013-06-16 13:58:00,85.1,69.2,29.99,SW,217,3.0,10.0,59,0.00,,,0.00,Wunderground v.1.15,2013-06-16 17:58:00,
2013-06-16 14:00:00,84.9,69.9,29.99,SW,217,1.0,7.0,61,0.00,,,0.00,Wunderground v.1.15,2013-06-16 18:00:00,
2013-06-16 14:01:00,84.9,70.4,29.99,SW,217,1.0,7.0,62,0.00,,,0.00,Wunderground v.1.15,2013-06-16 18:01:00,
2013-06-16 14:03:00,85.0,71.0,29.99,SW,217,1.0,7.0,63,0.00,,,0.00,Wunderground v.1.15,2013-06-16 18:03:00,
2013-06-16 14:04:00,85.1,70.6,29.99,SW,217,4.0,7.0,62,0.00,,,0.00,Wunderground v.1.15,2013-06-16 18:04:00,
2013-06-16 14:05:00,85.1,71.1,29.99,SW,217,4.0,7.0,63,0.00,,,0.00,Wunderground v.1.15,2013-06-16 18:05:00,
2013-06-16 14:06:00,85.1,69.7,29.99,SW,217,2.0,7.0,60,0.00,,,0.00,Wunderground v.1.15,2013-06-16 18:06:00,
2013-06-16 14:08:00,85.1,68.7,29.99,SW,217,3.0,7.0,58,0.00,,,0.00,Wunderground v.1.15,2013-06-16 18:08:00,
2013-06-16 14:09:00,85.1,70.6,29.99,SW,217,3.0,7.0,62,0.00,,,0.00,Wunderground v.1.15,2013-06-16 18:09:00,
2013-06-16 14:10:00,85.1,70.1,29.99,SW,217,1.0,2.0,61,0.00,,,0.00,Wunderground v.1.15,2013-06-16 18:10:00,
2013-06-16 14:11:00,85.2,70.7,29.99,SW,217,4.0,4.0,62,0.00,,,0.00,Wunderground v.1.15,2013-06-16 18:11:00,
2013-06-16 14:13:00,85.2,71.6,29.99,SW,217,0.0,6.0,64,0.00,,,0.00,Wunderground v.1.15,2013-06-16 18:13:00,
2013-06-16 14:14:00,85.2,70.2,29.99,SW,217,1.0,6.0,61,0.00,,,0.00,Wunderground v.1.15,2013-06-16 18:14:00,
2013-06-16 14:15:00,85.3,69.8,29.99,SW,217,2.0,6.0,60,0.00,,,0.00,Wunderground v.1.15,2013-06-16 18:15:00,
2013-06-16 14:17:00,85.4,70.9,29.99,SW,217,9.0,10.0,62,0.00,,,0.00,Wunderground v.1.15,2013-06-16 18:17:00,
2013-06-16 14:19:00,85.2,68.8,29.99,SW,217,2.0,11.0,58,0.00,,,0.00,Wunderground v.1.15,2013-06-16 18:19:00,
2013-06-16 14:20:00,85.1,69.2,29.99,SW,217,9.0,9.0,59,0.00,,,0.00,Wunderground v.1.15,2013-06-16 18:20:00,
2013-06-16 14:22:00,84.9,68.5,29.99,SW,217,4.0,10.0,58,0.00,,,0.00,Wunderground v.1.15,2013-06-16 18:22:00,
2013-06-16 14:24:00,84.9,68.0,29.99,SW,217,2.0,10.0,57,0.00,,,0.00,Wunderground v.1.15,2013-06-16 18:24:00,
2013-06-16 14:25:00,84.9,70.9,29.99,SW,217,2.0,10.0,63,0.00,,,0.00,Wunderground v.1.15,2013-06-16 18:25:00,
2013-06-16 14:26:00,85.0,71.0,29.99,SW,217,1.0,10.0,63,0.00,,,0.00,Wunderground v.1.15,2013-06-16 18:26:00,
2013-06-16 14:28:00,85.1,69.2,29.99,SW,217,0.0,10.0,59,0.00,,,0.00,Wunderground v.1.15,2013-06-16 18:28:00,
2013-06-16 14:29:00,85.2,70.2,29.99,SW,217,1.0,10.0,61,0.00,,,0.00,Wunderground v.1.15,2013-06-16 18:29:00,
2013-06-16 14:30:00,85.3,70.8,29.99,SW,217,3.0,4.0,62,0.00,,,0.00,Wunderground v.1.15,2013-06-16 18:30:00,
2013-06-16 14:31:00,85.4,70.9,29.99,SW,217,2.0,4.0,62,0.00,,,0.00,Wunderground v.1.15,2013-06-16 18:31:00,
2013-06-16 14:33:00,85.6,69.1,29.99,SW,217,0.0,4.0,58,0.00,,,0.00,Wunderground v.1.15,2013-06-16 18:33:00,
2013-06-16 14:35:00,85.8,69.3,29.99,SW,215,6.0,7.0,58,0.00,,,0.00,Wunderground v.1.15,2013-06-16 18:35:00,
2013-06-16 14:36:00,85.9,69.9,29.99,SW,216,1.0,7.0,59,0.00,,,0.00,Wunderground v.1.15,2013-06-16 18:36:00,
2013-06-16 14:38:00,85.9,70.4,29.98,SW,216,1.0,7.0,60,0.00,,,0.00,Wunderground v.1.15,2013-06-16 18:38:00,
2013-06-16 14:40:00,86.1,70.6,29.98,SW,216,4.0,4.0,60,0.00,,,0.00,Wunderground v.1.15,2013-06-16 18:40:00,
2013-06-16 14:41:00,86.2,70.7,29.98,SW,216,1.0,4.0,60,0.00,,,0.00,Wunderground v.1.15,2013-06-16 18:41:00,
2013-06-16 14:43:00,86.3,70.3,29.98,SW,215,0.0,4.0,59,0.00,,,0.00,Wunderground v.1.15,2013-06-16 18:43:00,
2013-06-16 14:45:00,86.3,70.3,29.98,SW,215,3.0,12.0,59,0.00,,,0.00,Wunderground v.1.15,2013-06-16 18:45:00,
2013-06-16 14:46:00,86.3,70.8,29.99,SW,215,1.0,12.0,60,0.00,,,0.00,Wunderground v.1.15,2013-06-16 18:46:00,
2013-06-16 14:47:00,86.3,70.8,29.99,SW,215,1.0,12.0,60,0.00,,,0.00,Wunderground v.1.15,2013-06-16 18:47:00,
2013-06-16 14:49:00,86.5,70.5,29.99,SW,215,1.0,12.0,59,0.00,,,0.00,Wunderground v.1.15,2013-06-16 18:49:00,
2013-06-16 14:50:00,86.6,71.1,29.98,SW,215,3.0,6.0,60,0.00,,,0.00,Wunderground v.1.15,2013-06-16 18:50:00,
2013-06-16 14:52:00,86.7,70.7,29.99,SW,215,3.0,6.0,59,0.00,,,0.00,Wunderground v.1.15,2013-06-16 18:52:00,
2013-06-16 14:54:00,86.9,69.8,29.98,SW,215,4.0,6.0,57,0.00,,,0.00,Wunderground v.1.15,2013-06-16 18:54:00,
2013-06-16 14:55:00,86.7,69.1,29.98,SW,216,3.0,8.0,56,0.00,,,0.00,Wunderground v.1.15,2013-06-16 18:55:00,
2013-06-16 14:57:00,86.6,71.1,29.98,SW,216,2.0,8.0,60,0.00,,,0.00,Wunderground v.1.15,2013-06-16 18:57:00,
2013-06-16 14:59:00,86.5,68.9,29.98,SSW,213,5.0,11.0,56,0.00,,,0.00,Wunderground v.1.15,2013-06-16 18:59:00,
2013-06-16 15:00:00,86.4,68.8,29.98,SSW,213,1.0,5.0,56,0.00,,,0.00,Wunderground v.1.15,2013-06-16 19:00:00,
2013-06-16 15:01:00,86.4,70.4,29.98,SSW,213,1.0,5.0,59,0.00,,,0.00,Wunderground v.1.15,2013-06-16 19:01:00,
2013-06-16 15:02:00,86.3,69.3,29.98,SSW,207,6.0,12.0,57,0.00,,,0.00,Wunderground v.1.15,2013-06-16 19:02:00,
2013-06-16 15:05:00,85.8,69.8,29.98,SSW,207,3.0,12.0,59,0.00,,,0.00,Wunderground v.1.15,2013-06-16 19:05:00,
2013-06-16 15:06:00,85.8,68.3,29.98,SSW,207,0.0,12.0,56,0.00,,,0.00,Wunderground v.1.15,2013-06-16 19:06:00,
2013-06-16 15:07:00,85.8,68.8,29.98,SSW,207,2.0,12.0,57,0.00,,,0.00,Wunderground v.1.15,2013-06-16 19:07:00,
2013-06-16 15:09:00,85.8,70.3,29.98,SSW,207,2.0,12.0,60,0.00,,,0.00,Wunderground v.1.15,2013-06-16 19:09:00,
2013-06-16 15:10:00,85.9,71.8,29.98,SSW,207,2.0,3.0,63,0.00,,,0.00,Wunderground v.1.15,2013-06-16 19:10:00,
2013-06-16 15:11:00,86.0,71.5,29.98,SSW,207,1.0,3.0,62,0.00,,,0.00,Wunderground v.1.15,2013-06-16 19:11:00,
2013-06-16 15:12:00,86.0,71.5,29.98,SSW,207,3.0,4.0,62,0.00,,,0.00,Wunderground v.1.15,2013-06-16 19:12:00,
2013-06-16 15:13:00,86.0,70.5,29.98,SSW,207,1.0,4.0,60,0.00,,,0.00,Wunderground v.1.15,2013-06-16 19:13:00,
2013-06-16 15:14:00,86.1,70.1,29.98,SSW,207,3.0,4.0,59,0.00,,,0.00,Wunderground v.1.15,2013-06-16 19:14:00,
2013-06-16 15:15:00,86.2,70.2,29.98,SSW,207,3.0,4.0,59,0.00,,,0.00,Wunderground v.1.15,2013-06-16 19:15:00,
2013-06-16 15:16:00,86.3,69.8,29.98,SSW,207,3.0,5.0,58,0.00,,,0.00,Wunderground v.1.15,2013-06-16 19:16:00,
2013-06-16 15:17:00,86.3,69.8,29.98,SSW,207,1.0,5.0,58,0.00,,,0.00,Wunderground v.1.15,2013-06-16 19:17:00,
2013-06-16 15:18:00,86.3,69.8,29.97,SSW,207,1.0,6.0,58,0.00,,,0.00,Wunderground v.1.15,2013-06-16 19:18:00,
2013-06-16 15:19:00,86.3,70.3,29.97,SSW,207,4.0,6.0,59,0.00,,,0.00,Wunderground v.1.15,2013-06-16 19:19:00,
2013-06-16 15:21:00,86.3,70.8,29.97,SSW,206,0.0,8.0,60,0.00,,,0.00,Wunderground v.1.15,2013-06-16 19:21:00,
2013-06-16 15:22:00,86.3,70.8,29.97,SSW,207,0.0,8.0,60,0.00,,,0.00,Wunderground v.1.15,2013-06-16 19:22:00,
2013-06-16 15:24:00,86.3,68.8,29.97,SSW,206,1.0,8.0,56,0.00,,,0.00,Wunderground v.1.15,2013-06-16 19:24:00,
2013-06-16 15:25:00,86.4,69.4,29.97,SSW,207,1.0,8.0,57,0.00,,,0.00,Wunderground v.1.15,2013-06-16 19:25:00,
2013-06-16 15:26:00,86.3,70.3,29.97,SSW,209,3.0,9.0,59,0.00,,,0.00,Wunderground v.1.15,2013-06-16 19:26:00,
2013-06-16 15:27:00,86.3,70.3,29.97,SSW,209,1.0,9.0,59,0.00,,,0.00,Wunderground v.1.15,2013-06-16 19:27:00,
2013-06-16 15:28:00,86.3,70.8,29.97,SSW,209,6.0,9.0,60,0.00,,,0.00,Wunderground v.1.15,2013-06-16 19:28:00,
2013-06-16 15:30:00,86.3,68.8,29.97,SSW,209,5.0,5.0,56,0.00,,,0.00,Wunderground v.1.15,2013-06-16 19:30:00,
2013-06-16 15:31:00,86.3,69.3,29.97,SSW,209,11.0,11.0,57,0.00,,,0.00,Wunderground v.1.15,2013-06-16 19:31:00,
2013-06-16 15:32:00,86.2,69.2,29.97,SSW,207,10.0,11.0,57,0.00,,,0.00,Wunderground v.1.15,2013-06-16 19:32:00,
2013-06-16 15:34:00,86.1,69.1,29.97,SSW,209,4.0,11.0,57,0.00,,,0.00,Wunderground v.1.15,2013-06-16 19:34:00,
2013-06-16 15:35:00,86.1,68.6,29.97,SSW,209,3.0,11.0,56,0.00,,,0.00,Wunderground v.1.15,2013-06-16 19:35:00,
2013-06-16 15:37:00,86.1,69.1,29.97,SSW,209,1.0,11.0,57,0.00,,,0.00,Wunderground v.1.15,2013-06-16 19:37:00,
2013-06-16 15:38:00,86.1,68.6,29.97,SSW,209,1.0,11.0,56,0.00,,,0.00,Wunderground v.1.15,2013-06-16 19:38:00,
2013-06-16 15:39:00,86.2,69.7,29.97,SSW,209,2.0,11.0,58,0.00,,,0.00,Wunderground v.1.15,2013-06-16 19:39:00,
2013-06-16 15:40:00,86.3,69.8,29.97,SSW,209,1.0,2.0,58,0.00,,,0.00,Wunderground v.1.15,2013-06-16 19:40:00,
2013-06-16 15:43:00,86.5,71.0,29.97,SSW,209,1.0,5.0,60,0.00,,,0.00,Wunderground v.1.15,2013-06-16 19:43:00,
2013-06-16 15:44:00,86.6,69.0,29.96,SSW,209,0.0,5.0,56,0.00,,,0.00,Wunderground v.1.15,2013-06-16 19:44:00,
2013-06-16 15:45:00,86.7,69.6,29.97,SSW,209,0.0,5.0,57,0.00,,,0.00,Wunderground v.1.15,2013-06-16 19:45:00,
2013-06-16 15:48:00,87.0,69.9,29.96,SSW,209,2.0,6.0,57,0.00,,,0.00,Wunderground v.1.15,2013-06-16 19:48:00,
2013-06-16 15:49:00,87.0,69.9,29.96,SSW,209,0.0,6.0,57,0.00,,,0.00,Wunderground v.1.15,2013-06-16 19:49:00,
2013-06-16 15:51:00,87.0,69.4,29.96,SSW,209,1.0,7.0,56,0.00,,,0.00,Wunderground v.1.15,2013-06-16 19:51:00,
2013-06-16 15:53:00,87.0,70.4,29.96,SSW,209,0.0,7.0,58,0.00,,,0.00,Wunderground v.1.15,2013-06-16 19:53:00,
2013-06-16 15:54:00,87.1,70.0,29.96,SSW,209,2.0,7.0,57,0.00,,,0.00,Wunderground v.1.15,2013-06-16 19:54:00,
2013-06-16 15:56:00,87.1,67.9,29.96,SSW,209,0.0,7.0,53,0.00,,,0.00,Wunderground v.1.15,2013-06-16 19:56:00,
2013-06-16 15:58:00,87.1,71.0,29.96,SSW,212,0.0,7.0,59,0.00,,,0.00,Wunderground v.1.15,2013-06-16 19:58:00,
2013-06-16 16:00:00,87.1,69.0,29.96,SSW,212,1.0,2.0,55,0.00,,,0.00,Wunderground v.1.15,2013-06-16 20:00:00,
2013-06-16 16:02:00,87.1,69.5,29.96,SSW,212,1.0,4.0,56,0.00,,,0.00,Wunderground v.1.15,2013-06-16 20:02:00,
2013-06-16 16:03:00,87.1,70.5,29.96,SSW,212,1.0,4.0,58,0.00,,,0.00,Wunderground v.1.15,2013-06-16 20:03:00,
2013-06-16 16:04:00,87.1,70.5,29.96,SSW,212,1.0,4.0,58,0.00,,,0.00,Wunderground v.1.15,2013-06-16 20:04:00,
2013-06-16 16:05:00,87.2,68.5,29.96,SSW,212,1.0,4.0,54,0.00,,,0.00,Wunderground v.1.15,2013-06-16 20:05:00,
2013-06-16 16:08:00,87.4,69.3,29.96,SSW,211,1.0,4.0,55,0.00,,,0.00,Wunderground v.1.15,2013-06-16 20:08:00,
2013-06-16 16:09:00,87.4,68.7,29.96,SSW,211,0.0,4.0,54,0.00,,,0.00,Wunderground v.1.15,2013-06-16 20:09:00,
2013-06-16 16:10:00,87.4,68.2,29.95,SSW,211,1.0,3.0,53,0.00,,,0.00,Wunderground v.1.15,2013-06-16 20:10:00,
2013-06-16 16:13:00,87.7,71.6,29.95,SSW,212,0.0,3.0,59,0.00,,,0.00,Wunderground v.1.15,2013-06-16 20:13:00,
2013-06-16 16:14:00,87.7,69.5,29.95,SSW,212,0.0,3.0,55,0.00,,,0.00,Wunderground v.1.15,2013-06-16 20:14:00,
2013-06-16 16:15:00,87.8,70.1,29.95,SSW,211,3.0,4.0,56,0.00,,,0.00,Wunderground v.1.15,2013-06-16 20:15:00,
2013-06-16 16:18:00,88.0,69.8,29.96,SSW,212,1.0,4.0,55,0.00,,,0.00,Wunderground v.1.15,2013-06-16 20:18:00,
2013-06-16 16:19:00,88.0,68.7,29.96,SSW,212,2.0,4.0,53,0.00,,,0.00,Wunderground v.1.15,2013-06-16 20:19:00,
2013-06-16 16:20:00,88.1,70.9,29.95,SSW,212,0.0,1.0,57,0.00,,,0.00,Wunderground v.1.15,2013-06-16 20:20:00,
2013-06-16 16:23:00,88.1,68.8,29.95,SSW,211,1.0,3.0,53,0.00,,,0.00,Wunderground v.1.15,2013-06-16 20:23:00,
2013-06-16 16:24:00,88.1,69.9,29.95,SSW,211,0.0,3.0,55,0.00,,,0.00,Wunderground v.1.15,2013-06-16 20:24:00,
2013-06-16 16:25:00,88.1,69.9,29.95,SSW,212,1.0,3.0,55,0.00,,,0.00,Wunderground v.1.15,2013-06-16 20:25:00,
2013-06-16 16:28:00,88.3,70.6,29.95,SSW,212,1.0,3.0,56,0.00,,,0.00,Wunderground v.1.15,2013-06-16 20:28:00,
2013-06-16 16:29:00,88.3,70.6,29.95,SSW,211,0.0,3.0,56,0.00,,,0.00,Wunderground v.1.15,2013-06-16 20:29:00,
2013-06-16 16:30:00,88.3,69.5,29.95,SSW,211,1.0,1.0,54,0.00,,,0.00,Wunderground v.1.15,2013-06-16 20:30:00,
2013-06-16 16:34:00,88.5,70.8,29.95,SSW,211,2.0,2.0,56,0.00,,,0.00,Wunderground v.1.15,2013-06-16 20:34:00,
2013-06-16 16:35:00,88.5,69.2,29.95,SSW,212,6.0,9.0,53,0.00,,,0.00,Wunderground v.1.15,2013-06-16 20:35:00,
2013-06-16 16:36:00,88.4,67.4,29.95,SSW,212,4.0,9.0,50,0.00,,,0.00,Wunderground v.1.15,2013-06-16 20:36:00,
2013-06-16 16:39:00,87.7,68.4,29.95,SSW,211,2.0,9.0,53,0.00,,,0.00,Wunderground v.1.15,2013-06-16 20:39:00,
2013-06-16 16:40:00,87.6,70.0,29.95,SSW,211,1.0,2.0,56,0.00,,,0.00,Wunderground v.1.15,2013-06-16 20:40:00,
2013-06-16 16:41:00,87.5,69.3,29.94,SSW,211,2.0,4.0,55,0.00,,,0.00,Wunderground v.1.15,2013-06-16 20:41:00,
2013-06-16 16:44:00,87.4,68.2,29.94,SSW,212,3.0,4.0,53,0.00,,,0.00,Wunderground v.1.15,2013-06-16 20:44:00,
2013-06-16 16:45:00,87.3,68.6,29.95,SSW,212,0.0,4.0,54,0.00,,,0.00,Wunderground v.1.15,2013-06-16 20:45:00,
2013-06-16 16:46:00,87.4,69.3,29.95,SSW,211,2.0,4.0,55,0.00,,,0.00,Wunderground v.1.15,2013-06-16 20:46:00,
2013-06-16 16:47:00,87.4,69.8,29.94,SSW,211,0.0,4.0,56,0.00,,,0.00,Wunderground v.1.15,2013-06-16 20:47:00,
2013-06-16 16:49:00,87.5,69.3,29.94,SSW,211,0.0,4.0,55,0.00,,,0.00,Wunderground v.1.15,2013-06-16 20:49:00,
2013-06-16 16:50:00,87.5,69.3,29.94,SSW,211,3.0,3.0,55,0.00,,,0.00,Wunderground v.1.15,2013-06-16 20:50:00,
2013-06-16 16:51:00,87.6,70.0,29.95,SSW,212,0.0,3.0,56,0.00,,,0.00,Wunderground v.1.15,2013-06-16 20:51:00,
2013-06-16 16:52:00,87.6,69.4,29.94,SSW,211,0.0,3.0,55,0.00,,,0.00,Wunderground v.1.15,2013-06-16 20:52:00,
2013-06-16 16:54:00,87.8,69.1,29.94,SSW,211,4.0,4.0,54,0.00,,,0.00,Wunderground v.1.15,2013-06-16 20:54:00,
2013-06-16 16:55:00,87.8,69.1,29.94,SSW,212,2.0,5.0,54,0.00,,,0.00,Wunderground v.1.15,2013-06-16 20:55:00,
2013-06-16 16:56:00,87.8,68.5,29.94,SSW,211,4.0,5.0,53,0.00,,,0.00,Wunderground v.1.15,2013-06-16 20:56:00,
2013-06-16 16:57:00,87.7,67.3,29.94,SSW,212,3.0,5.0,51,0.00,,,0.00,Wunderground v.1.15,2013-06-16 20:57:00,
2013-06-16 17:00:00,87.4,68.2,29.94,SSW,212,0.0,2.0,53,0.00,,,0.00,Wunderground v.1.15,2013-06-16 21:00:00,
2013-06-16 17:01:00,87.2,69.6,29.94,SSW,211,0.0,2.0,56,0.00,,,0.00,Wunderground v.1.15,2013-06-16 21:01:00,
2013-06-16 17:02:00,87.1,69.5,29.94,SSW,212,1.0,2.0,56,0.00,,,0.00,Wunderground v.1.15,2013-06-16 21:02:00,
2013-06-16 17:03:00,87.1,69.5,29.94,SSW,211,0.0,2.0,56,0.00,,,0.00,Wunderground v.1.15,2013-06-16 21:03:00,
2013-06-16 17:05:00,86.8,70.2,29.94,SSW,212,0.0,3.0,58,0.00,,,0.00,Wunderground v.1.15,2013-06-16 21:05:00,
2013-06-16 17:06:00,86.6,70.6,29.94,SSW,212,0.0,3.0,59,0.00,,,0.00,Wunderground v.1.15,2013-06-16 21:06:00,
2013-06-16 17:07:00,86.6,70.6,29.94,SSW,211,1.0,3.0,59,0.00,,,0.00,Wunderground v.1.15,2013-06-16 21:07:00,
2013-06-16 17:08:00,86.4,69.4,29.94,SSW,212,0.0,3.0,57,0.00,,,0.00,Wunderground v.1.15,2013-06-16 21:08:00,
2013-06-16 17:10:00,86.0,71.9,29.94,SSW,211,0.0,0.0,63,0.00,,,0.00,Wunderground v.1.15,2013-06-16 21:10:00,
2013-06-16 17:11:00,85.9,71.4,29.94,SSW,211,0.0,0.0,62,0.00,,,0.00,Wunderground v.1.15,2013-06-16 21:11:00,
2013-06-16 17:12:00,85.9,71.4,29.94,SSW,212,0.0,0.0,62,0.00,,,0.00,Wunderground v.1.15,2013-06-16 21:12:00,
2013-06-16 17:13:00,85.7,70.7,29.94,SSW,211,0.0,1.0,61,0.00,,,0.00,Wunderground v.1.15,2013-06-16 21:13:00,
2013-06-16 17:15:00,85.5,70.0,29.94,SSW,212,0.0,1.0,60,0.00,,,0.00,Wunderground v.1.15,2013-06-16 21:15:00,
2013-06-16 17:16:00,85.3,70.3,29.94,SSW,211,0.0,1.0,61,0.00,,,0.00,Wunderground v.1.15,2013-06-16 21:16:00,
2013-06-16 17:17:00,85.3,70.3,29.94,SSW,212,0.0,1.0,61,0.00,,,0.00,Wunderground v.1.15,2013-06-16 21:17:00,
2013-06-16 17:19:00,85.0,71.0,29.94,SSW,211,0.0,1.0,63,0.00,,,0.00,Wunderground v.1.15,2013-06-16 21:19:00,
2013-06-16 17:21:00,84.9,70.9,29.94,SSW,211,0.0,1.0,63,0.00,,,0.00,Wunderground v.1.15,2013-06-16 21:21:00,
2013-06-16 17:22:00,84.8,70.3,29.94,SSW,211,0.0,1.0,62,0.00,,,0.00,Wunderground v.1.15,2013-06-16 21:22:00,
2013-06-16 17:25:00,84.5,69.6,29.94,SSW,212,0.0,1.0,61,0.00,,,0.00,Wunderground v.1.15,2013-06-16 21:25:00,
2013-06-16 17:26:00,84.3,69.9,29.94,SSW,212,0.0,1.0,62,0.00,,,0.00,Wunderground v.1.15,2013-06-16 21:26:00,
2013-06-16 17:27:00,84.3,69.9,29.94,SSW,211,0.0,1.0,62,0.00,,,0.00,Wunderground v.1.15,2013-06-16 21:27:00,
2013-06-16 17:28:00,84.2,70.7,29.94,SSW,212,0.0,1.0,64,0.00,,,0.00,Wunderground v.1.15,2013-06-16 21:28:00,
2013-06-16 17:30:00,84.0,70.0,29.94,SSW,211,0.0,0.0,63,0.00,,,0.00,Wunderground v.1.15,2013-06-16 21:30:00,
2013-06-16 17:31:00,84.0,70.0,29.94,SSW,212,0.0,0.0,63,0.00,,,0.00,Wunderground v.1.15,2013-06-16 21:31:00,
2013-06-16 17:32:00,83.9,72.2,29.94,SSW,212,0.0,0.0,68,0.00,,,0.00,Wunderground v.1.15,2013-06-16 21:32:00,
2013-06-16 17:33:00,83.9,72.6,29.94,SSW,211,0.0,0.0,69,0.00,,,0.00,Wunderground v.1.15,2013-06-16 21:33:00,
2013-06-16 17:35:00,83.9,73.1,29.93,SSW,212,0.0,0.0,70,0.00,,,0.00,Wunderground v.1.15,2013-06-16 21:35:00,
2013-06-16 17:36:00,83.9,73.1,29.93,SSW,211,0.0,0.0,70,0.00,,,0.00,Wunderground v.1.15,2013-06-16 21:36:00,
2013-06-16 17:37:00,83.9,73.1,29.93,SSW,211,0.0,0.0,70,0.00,,,0.00,Wunderground v.1.15,2013-06-16 21:37:00,
2013-06-16 17:39:00,83.8,73.8,29.93,SSW,212,0.0,0.0,72,0.00,,,0.00,Wunderground v.1.15,2013-06-16 21:39:00,
2013-06-16 17:40:00,83.8,74.2,29.93,SSW,212,1.0,2.0,73,0.00,,,0.00,Wunderground v.1.15,2013-06-16 21:40:00,
2013-06-16 17:42:00,83.6,71.5,29.93,SSW,211,1.0,2.0,67,0.00,,,0.00,Wunderground v.1.15,2013-06-16 21:42:00,
2013-06-16 17:43:00,83.6,71.5,29.93,SSW,212,1.0,2.0,67,0.00,,,0.00,Wunderground v.1.15,2013-06-16 21:43:00,
2013-06-16 17:44:00,83.3,71.2,29.93,SSW,211,0.0,2.0,67,0.00,,,0.00,Wunderground v.1.15,2013-06-16 21:44:00,
2013-06-16 17:45:00,83.2,71.1,29.93,SSW,211,0.0,2.0,67,0.00,,,0.00,Wunderground v.1.15,2013-06-16 21:45:00,
2013-06-16 17:48:00,83.0,71.3,29.93,SSW,212,0.0,2.0,68,0.00,,,0.00,Wunderground v.1.15,2013-06-16 21:48:00,
2013-06-16 17:49:00,83.0,71.8,29.93,SSW,212,0.0,2.0,69,0.00,,,0.00,Wunderground v.1.15,2013-06-16 21:49:00,
2013-06-16 17:50:00,82.9,72.1,29.93,SSW,212,0.0,0.0,70,0.00,,,0.00,Wunderground v.1.15,2013-06-16 21:50:00,
2013-06-16 17:53:00,82.9,72.1,29.92,SSW,211,0.0,1.0,70,0.00,,,0.00,Wunderground v.1.15,2013-06-16 21:53:00,
2013-06-16 17:54:00,82.8,72.8,29.93,SSW,212,0.0,1.0,72,0.00,,,0.00,Wunderground v.1.15,2013-06-16 21:54:00,
2013-06-16 17:55:00,82.8,71.6,29.93,SSW,211,1.0,2.0,69,0.00,,,0.00,Wunderground v.1.15,2013-06-16 21:55:00,
2013-06-16 17:58:00,82.7,70.6,29.93,SSW,212,0.0,2.0,67,0.00,,,0.00,Wunderground v.1.15,2013-06-16 21:58:00,
2013-06-16 17:59:00,82.7,71.1,29.93,SSW,212,0.0,2.0,68,0.00,,,0.00,Wunderground v.1.15,2013-06-16 21:59:00,
2013-06-16 18:00:00,82.7,71.5,29.93,SSW,212,0.0,0.0,69,0.00,,,0.00,Wunderground v.1.15,2013-06-16 22:00:00,
2013-06-16 18:03:00,82.7,71.9,29.93,SSW,212,0.0,0.0,70,0.00,,,0.00,Wunderground v.1.15,2013-06-16 22:03:00,
2013-06-16 18:04:00,82.7,71.9,29.93,SSW,212,0.0,0.0,70,0.00,,,0.00,Wunderground v.1.15,2013-06-16 22:04:00,
2013-06-16 18:05:00,82.7,71.9,29.93,SSW,212,0.0,0.0,70,0.00,,,0.00,Wunderground v.1.15,2013-06-16 22:05:00,
2013-06-16 18:08:00,82.8,72.4,29.93,SSW,212,0.0,0.0,71,0.00,,,0.00,Wunderground v.1.15,2013-06-16 22:08:00,
2013-06-16 18:09:00,82.9,73.4,29.93,SSW,212,0.0,0.0,73,0.00,,,0.00,Wunderground v.1.15,2013-06-16 22:09:00,
2013-06-16 18:10:00,83.0,73.4,29.93,SSW,211,0.0,0.0,73,0.00,,,0.00,Wunderground v.1.15,2013-06-16 22:10:00,
2013-06-16 18:14:00,83.3,73.7,29.93,SSW,212,0.0,0.0,73,0.00,,,0.00,Wunderground v.1.15,2013-06-16 22:14:00,
2013-06-16 18:15:00,83.4,73.4,29.93,SSW,211,0.0,0.0,72,0.00,,,0.00,Wunderground v.1.15,2013-06-16 22:15:00,
2013-06-16 18:16:00,83.5,73.1,29.92,SSW,212,0.0,1.0,71,0.00,,,0.00,Wunderground v.1.15,2013-06-16 22:16:00,
2013-06-16 18:19:00,83.9,72.2,29.93,SSW,212,0.0,0.0,68,0.00,,,0.00,Wunderground v.1.15,2013-06-16 22:19:00,
2013-06-16 18:20:00,83.9,72.2,29.93,SSW,212,0.0,1.0,68,0.00,,,0.00,Wunderground v.1.15,2013-06-16 22:20:00,
2013-06-16 18:21:00,84.0,73.6,29.93,SSW,212,0.0,2.0,71,0.00,,,0.00,Wunderground v.1.15,2013-06-16 22:21:00,
2013-06-16 18:25:00,84.1,74.1,29.92,SSW,212,2.0,2.0,72,0.00,,,0.00,Wunderground v.1.15,2013-06-16 22:25:00,
2013-06-16 18:26:00,84.1,73.3,29.93,SSW,212,1.0,2.0,70,0.00,,,0.00,Wunderground v.1.15,2013-06-16 22:26:00,
2013-06-16 18:30:00,83.8,72.1,29.92,SSW,211,1.0,3.0,68,0.00,,,0.00,Wunderground v.1.15,2013-06-16 22:30:00,
2013-06-16 18:32:00,83.7,72.9,29.92,SSW,211,1.0,3.0,70,0.00,,,0.00,Wunderground v.1.15,2013-06-16 22:32:00,
2013-06-16 18:33:00,83.7,73.3,29.92,SSW,212,0.0,3.0,71,0.00,,,0.00,Wunderground v.1.15,2013-06-16 22:33:00,
2013-06-16 18:35:00,83.6,73.6,29.92,SSW,211,0.0,3.0,72,0.00,,,0.00,Wunderground v.1.15,2013-06-16 22:35:00,
2013-06-16 18:36:00,83.6,73.6,29.92,SSW,211,0.0,3.0,72,0.00,,,0.00,Wunderground v.1.15,2013-06-16 22:36:00,
2013-06-16 18:37:00,83.5,73.5,29.92,SSW,211,0.0,3.0,72,0.00,,,0.00,Wunderground v.1.15,2013-06-16 22:37:00,
2013-06-16 18:38:00,83.4,73.4,29.92,SSW,211,0.0,3.0,72,0.00,,,0.00,Wunderground v.1.15,2013-06-16 22:38:00,
2013-06-16 18:40:00,83.3,72.9,29.92,SSW,211,0.0,0.0,71,0.00,,,0.00,Wunderground v.1.15,2013-06-16 22:40:00,
2013-06-16 18:41:00,83.3,72.9,29.92,SSW,211,0.0,0.0,71,0.00,,,0.00,Wunderground v.1.15,2013-06-16 22:41:00,
2013-06-16 18:42:00,83.3,73.7,29.92,SSW,211,0.0,0.0,73,0.00,,,0.00,Wunderground v.1.15,2013-06-16 22:42:00,
2013-06-16 18:43:00,83.3,74.1,29.92,SSW,211,0.0,0.0,74,0.00,,,0.00,Wunderground v.1.15,2013-06-16 22:43:00,
2013-06-16 18:45:00,83.2,74.4,29.92,SSW,211,0.0,0.0,75,0.00,,,0.00,Wunderground v.1.15,2013-06-16 22:45:00,
2013-06-16 18:46:00,83.2,74.4,29.92,SSW,212,0.0,0.0,75,0.00,,,0.00,Wunderground v.1.15,2013-06-16 22:46:00,
2013-06-16 18:47:00,83.2,74.4,29.92,SSW,211,0.0,0.0,75,0.00,,,0.00,Wunderground v.1.15,2013-06-16 22:47:00,
2013-06-16 18:48:00,83.2,74.4,29.92,SSW,211,0.0,0.0,75,0.00,,,0.00,Wunderground v.1.15,2013-06-16 22:48:00,
2013-06-16 18:51:00,83.1,74.7,29.92,SSW,211,0.0,0.0,76,0.00,,,0.00,Wunderground v.1.15,2013-06-16 22:51:00,
2013-06-16 18:53:00,83.0,74.3,29.92,SSW,212,0.0,0.0,75,0.00,,,0.00,Wunderground v.1.15,2013-06-16 22:53:00,
2013-06-16 18:56:00,83.0,73.4,29.92,SSW,212,0.0,0.0,73,0.00,,,0.00,Wunderground v.1.15,2013-06-16 22:56:00,
2013-06-16 18:58:00,82.9,73.4,29.92,SSW,211,0.0,0.0,73,0.00,,,0.00,Wunderground v.1.15,2013-06-16 22:58:00,
2013-06-16 19:01:00,82.8,74.1,29.92,SSW,212,0.0,0.0,75,0.00,,,0.00,Wunderground v.1.15,2013-06-16 23:01:00,
2013-06-16 19:02:00,82.7,74.0,29.92,SSW,212,0.0,0.0,75,0.00,,,0.00,Wunderground v.1.15,2013-06-16 23:02:00,
2013-06-16 19:03:00,82.7,74.0,29.92,SSW,212,0.0,0.0,75,0.00,,,0.00,Wunderground v.1.15,2013-06-16 23:03:00,
2013-06-16 19:04:00,82.6,73.9,29.92,SSW,212,0.0,0.0,75,0.00,,,0.00,Wunderground v.1.15,2013-06-16 23:04:00,
2013-06-16 19:06:00,82.5,73.8,29.92,SSW,212,0.0,0.0,75,0.00,,,0.00,Wunderground v.1.15,2013-06-16 23:06:00,
2013-06-16 19:07:00,82.4,73.3,29.92,SSW,211,0.0,0.0,74,0.00,,,0.00,Wunderground v.1.15,2013-06-16 23:07:00,
2013-06-16 19:09:00,82.2,72.7,29.92,SSW,212,0.0,0.0,73,0.00,,,0.00,Wunderground v.1.15,2013-06-16 23:09:00,
2013-06-16 19:12:00,81.9,72.0,29.92,SSW,211,1.0,1.0,72,0.00,,,0.00,Wunderground v.1.15,2013-06-16 23:12:00,
2013-06-16 19:13:00,81.8,72.3,29.92,SSW,212,0.0,1.0,73,0.00,,,0.00,Wunderground v.1.15,2013-06-16 23:13:00,
2013-06-16 19:14:00,81.6,72.5,29.92,SSW,212,0.0,1.0,74,0.00,,,0.00,Wunderground v.1.15,2013-06-16 23:14:00,
2013-06-16 19:15:00,81.5,72.8,29.92,SSW,212,0.0,1.0,75,0.00,,,0.00,Wunderground v.1.15,2013-06-16 23:15:00,
2013-06-16 19:17:00,81.4,72.7,29.92,SSW,212,1.0,1.0,75,0.00,,,0.00,Wunderground v.1.15,2013-06-16 23:17:00,
2013-06-16 19:18:00,81.3,72.2,29.92,SSW,211,0.0,1.0,74,0.00,,,0.00,Wunderground v.1.15,2013-06-16 23:18:00,
2013-06-16 19:19:00,81.2,72.5,29.92,SSW,211,0.0,1.0,75,0.00,,,0.00,Wunderground v.1.15,2013-06-16 23:19:00,
2013-06-16 19:20:00,81.1,72.4,29.92,SSW,211,0.0,0.0,75,0.00,,,0.00,Wunderground v.1.15,2013-06-16 23:20:00,
2013-06-16 19:22:00,81.0,72.7,29.92,SSW,211,0.0,0.0,76,0.00,,,0.00,Wunderground v.1.15,2013-06-16 23:22:00,
2013-06-16 19:23:00,80.9,72.2,29.92,SSW,212,1.0,1.0,75,0.00,,,0.00,Wunderground v.1.15,2013-06-16 23:23:00,
2013-06-16 19:24:00,80.8,71.7,29.92,SSW,211,0.0,1.0,74,0.00,,,0.00,Wunderground v.1.15,2013-06-16 23:24:00,
2013-06-16 19:25:00,80.7,71.6,29.93,SSW,211,0.0,1.0,74,0.00,,,0.00,Wunderground v.1.15,2013-06-16 23:25:00,
2013-06-16 19:27:00,80.7,71.6,29.92,SSW,212,0.0,1.0,74,0.00,,,0.00,Wunderground v.1.15,2013-06-16 23:27:00,
2013-06-16 19:28:00,80.7,72.0,29.92,SSW,212,0.0,1.0,75,0.00,,,0.00,Wunderground v.1.15,2013-06-16 23:28:00,
2013-06-16 19:29:00,80.6,71.9,29.93,SSW,211,0.0,1.0,75,0.00,,,0.00,Wunderground v.1.15,2013-06-16 23:29:00,
2013-06-16 19:30:00,80.6,71.9,29.93,SSW,211,0.0,0.0,75,0.00,,,0.00,Wunderground v.1.15,2013-06-16 23:30:00,
2013-06-16 19:31:00,80.5,72.2,29.93,SSW,212,0.0,0.0,76,0.00,,,0.00,Wunderground v.1.15,2013-06-16 23:31:00,
2013-06-16 19:32:00,80.5,72.2,29.93,SSW,211,0.0,0.0,76,0.00,,,0.00,Wunderground v.1.15,2013-06-16 23:32:00,
2013-06-16 19:33:00,80.5,72.2,29.93,SSW,211,0.0,0.0,76,0.00,,,0.00,Wunderground v.1.15,2013-06-16 23:33:00,
2013-06-16 19:34:00,80.4,72.1,29.93,SSW,212,0.0,0.0,76,0.00,,,0.00,Wunderground v.1.15,2013-06-16 23:34:00,
2013-06-16 19:35:00,80.4,72.1,29.93,SSW,211,0.0,0.0,76,0.00,,,0.00,Wunderground v.1.15,2013-06-16 23:35:00,
2013-06-16 19:36:00,80.3,72.0,29.93,SSW,212,0.0,0.0,76,0.00,,,0.00,Wunderground v.1.15,2013-06-16 23:36:00,
2013-06-16 19:38:00,80.3,72.0,29.93,SSW,212,0.0,0.0,76,0.00,,,0.00,Wunderground v.1.15,2013-06-16 23:38:00,
2013-06-16 19:40:00,80.2,71.9,29.93,SSW,212,0.0,0.0,76,0.00,,,0.00,Wunderground v.1.15,2013-06-16 23:40:00,
2013-06-16 19:42:00,80.1,72.2,29.93,SSW,211,0.0,0.0,77,0.00,,,0.00,Wunderground v.1.15,2013-06-16 23:42:00,
2013-06-16 19:43:00,80.0,71.8,29.93,SSW,212,0.0,0.0,76,0.00,,,0.00,Wunderground v.1.15,2013-06-16 23:43:00,
2013-06-16 19:45:00,79.8,71.2,29.93,SSW,211,0.0,1.0,75,0.00,,,0.00,Wunderground v.1.15,2013-06-16 23:45:00,
2013-06-16 19:47:00,79.7,71.5,29.93,SSW,211,0.0,1.0,76,0.00,,,0.00,Wunderground v.1.15,2013-06-16 23:47:00,
2013-06-16 19:48:00,79.7,71.5,29.93,SSW,212,0.0,1.0,76,0.00,,,0.00,Wunderground v.1.15,2013-06-16 23:48:00,
2013-06-16 19:49:00,79.6,71.4,29.93,SSW,211,0.0,1.0,76,0.00,,,0.00,Wunderground v.1.15,2013-06-16 23:49:00,
2013-06-16 19:50:00,79.6,71.8,29.93,SSW,211,0.0,0.0,77,0.00,,,0.00,Wunderground v.1.15,2013-06-16 23:50:00,
2013-06-16 19:53:00,79.5,72.0,29.93,SSW,212,0.0,1.0,78,0.00,,,0.00,Wunderground v.1.15,2013-06-16 23:53:00,
2013-06-16 19:54:00,79.4,72.3,29.93,SSW,212,0.0,1.0,79,0.00,,,0.00,Wunderground v.1.15,2013-06-16 23:54:00,
2013-06-16 19:56:00,79.3,72.2,29.93,SSW,212,0.0,1.0,79,0.00,,,0.00,Wunderground v.1.15,2013-06-16 23:56:00,
2013-06-16 19:58:00,79.2,72.1,29.93,SSW,212,0.0,1.0,79,0.00,,,0.00,Wunderground v.1.15,2013-06-16 23:58:00,
2013-06-16 19:59:00,79.1,72.0,29.93,SSW,212,0.0,1.0,79,0.00,,,0.00,Wunderground v.1.15,2013-06-16 23:59:00,
2013-06-16 20:01:00,79.0,71.6,29.93,SSW,212,0.0,0.0,78,0.00,,,0.00,Wunderground v.1.15,2013-06-17 00:01:00,
2013-06-16 20:03:00,78.9,71.5,29.94,SSW,212,0.0,0.0,78,0.00,,,0.00,Wunderground v.1.15,2013-06-17 00:03:00,
2013-06-16 20:04:00,78.9,71.5,29.94,SSW,212,0.0,0.0,78,0.00,,,0.00,Wunderground v.1.15,2013-06-17 00:04:00,
2013-06-16 20:06:00,78.7,71.3,29.94,SSW,211,0.0,0.0,78,0.00,,,0.00,Wunderground v.1.15,2013-06-17 00:06:00,
2013-06-16 20:07:00,78.7,71.3,29.94,SSW,211,0.0,0.0,78,0.00,,,0.00,Wunderground v.1.15,2013-06-17 00:07:00,
2013-06-16 20:08:00,78.7,71.3,29.94,SSW,211,0.0,0.0,78,0.00,,,0.00,Wunderground v.1.15,2013-06-17 00:08:00,
2013-06-16 20:09:00,78.7,71.3,29.94,SSW,211,0.0,0.0,78,0.00,,,0.00,Wunderground v.1.15,2013-06-17 00:09:00,
2013-06-16 20:11:00,78.7,71.6,29.94,SSW,212,0.0,0.0,79,0.00,,,0.00,Wunderground v.1.15,2013-06-17 00:11:00,
2013-06-16 20:12:00,78.7,71.6,29.93,SSW,212,0.0,0.0,79,0.00,,,0.00,Wunderground v.1.15,2013-06-17 00:12:00,
2013-06-16 20:14:00,78.7,72.0,29.94,SSW,212,0.0,0.0,80,0.00,,,0.00,Wunderground v.1.15,2013-06-17 00:14:00,
2013-06-16 20:15:00,78.6,71.9,29.94,SSW,211,0.0,0.0,80,0.00,,,0.00,Wunderground v.1.15,2013-06-17 00:15:00,
2013-06-16 20:17:00,78.5,71.8,29.94,SSW,211,0.0,1.0,80,0.00,,,0.00,Wunderground v.1.15,2013-06-17 00:17:00,
2013-06-16 20:18:00,78.5,71.8,29.94,SSW,211,0.0,1.0,80,0.00,,,0.00,Wunderground v.1.15,2013-06-17 00:18:00,
2013-06-16 20:19:00,78.4,72.1,29.94,SSW,211,0.0,1.0,81,0.00,,,0.00,Wunderground v.1.15,2013-06-17 00:19:00,
2013-06-16 20:20:00,78.4,72.1,29.94,SSW,211,0.0,0.0,81,0.00,,,0.00,Wunderground v.1.15,2013-06-17 00:20:00,
2013-06-16 20:22:00,78.3,72.0,29.94,SSW,211,0.0,0.0,81,0.00,,,0.00,Wunderground v.1.15,2013-06-17 00:22:00,
2013-06-16 20:23:00,78.3,72.3,29.94,SSW,212,0.0,0.0,82,0.00,,,0.00,Wunderground v.1.15,2013-06-17 00:23:00,
2013-06-16 20:25:00,78.3,72.3,29.94,SSW,212,0.0,0.0,82,0.00,,,0.00,Wunderground v.1.15,2013-06-17 00:25:00,
2013-06-16 20:27:00,78.2,72.3,29.94,SSW,212,0.0,0.0,82,0.00,,,0.00,Wunderground v.1.15,2013-06-17 00:27:00,
2013-06-16 20:28:00,78.2,72.3,29.94,SSW,212,0.0,0.0,82,0.00,,,0.00,Wunderground v.1.15,2013-06-17 00:28:00,
2013-06-16 20:30:00,78.1,72.2,29.94,SSW,212,0.0,0.0,82,0.00,,,0.00,Wunderground v.1.15,2013-06-17 00:30:00,
2013-06-16 20:31:00,78.1,72.2,29.94,SSW,212,0.0,0.0,82,0.00,,,0.00,Wunderground v.1.15,2013-06-17 00:31:00,
2013-06-16 20:33:00,78.0,72.4,29.94,SSW,211,0.0,0.0,83,0.00,,,0.00,Wunderground v.1.15,2013-06-17 00:33:00,
2013-06-16 20:34:00,77.9,72.3,29.94,SSW,212,0.0,0.0,83,0.00,,,0.00,Wunderground v.1.15,2013-06-17 00:34:00,
2013-06-16 20:35:00,77.9,72.7,29.94,SSW,212,0.0,0.0,84,0.00,,,0.00,Wunderground v.1.15,2013-06-17 00:35:00,
2013-06-16 20:37:00,77.8,72.6,29.94,SSW,212,0.0,0.0,84,0.00,,,0.00,Wunderground v.1.15,2013-06-17 00:37:00,
2013-06-16 20:39:00,77.5,71.6,29.94,SSW,211,2.0,2.0,82,0.00,,,0.00,Wunderground v.1.15,2013-06-17 00:39:00,
2013-06-16 20:40:00,77.3,71.4,29.94,SSW,212,1.0,2.0,82,0.00,,,0.00,Wunderground v.1.15,2013-06-17 00:40:00,
2013-06-16 20:41:00,77.3,71.7,29.94,SSW,212,0.0,2.0,83,0.00,,,0.00,Wunderground v.1.15,2013-06-17 00:41:00,
2013-06-16 20:42:00,77.2,71.6,29.94,SSW,212,0.0,2.0,83,0.00,,,0.00,Wunderground v.1.15,2013-06-17 00:42:00,
2013-06-16 20:44:00,77.0,71.8,29.94,SSW,212,0.0,2.0,84,0.00,,,0.00,Wunderground v.1.15,2013-06-17 00:44:00,
2013-06-16 20:45:00,77.0,71.8,29.94,SSW,212,0.0,2.0,84,0.00,,,0.00,Wunderground v.1.15,2013-06-17 00:45:00,
2013-06-16 20:46:00,77.0,71.8,29.94,SSW,211,0.0,2.0,84,0.00,,,0.00,Wunderground v.1.15,2013-06-17 00:46:00,
2013-06-16 20:47:00,76.9,72.0,29.94,SSW,211,0.0,2.0,85,0.00,,,0.00,Wunderground v.1.15,2013-06-17 00:47:00,
2013-06-16 20:50:00,76.7,71.8,29.94,SSW,212,0.0,0.0,85,0.00,,,0.00,Wunderground v.1.15,2013-06-17 00:50:00,
2013-06-16 20:51:00,76.6,71.7,29.94,SSW,212,0.0,1.0,85,0.00,,,0.00,Wunderground v.1.15,2013-06-17 00:51:00,
2013-06-16 20:52:00,76.6,71.7,29.94,SSW,211,0.0,1.0,85,0.00,,,0.00,Wunderground v.1.15,2013-06-17 00:52:00,
2013-06-16 20:53:00,76.4,71.9,29.94,SSW,212,0.0,1.0,86,0.00,,,0.00,Wunderground v.1.15,2013-06-17 00:53:00,
2013-06-16 20:55:00,76.3,71.8,29.94,SSW,212,0.0,1.0,86,0.00,,,0.00,Wunderground v.1.15,2013-06-17 00:55:00,
2013-06-16 20:56:00,76.2,71.7,29.94,SSW,212,0.0,1.0,86,0.00,,,0.00,Wunderground v.1.15,2013-06-17 00:56:00,
2013-06-16 20:57:00,76.1,71.6,29.94,SSW,211,0.0,1.0,86,0.00,,,0.00,Wunderground v.1.15,2013-06-17 00:57:00,
2013-06-16 20:58:00,76.0,71.8,29.94,SSW,212,0.0,1.0,87,0.00,,,0.00,Wunderground v.1.15,2013-06-17 00:58:00,
2013-06-16 21:00:00,75.9,71.8,29.94,SSW,212,0.0,0.0,87,0.00,,,0.00,Wunderground v.1.15,2013-06-17 01:00:00,
2013-06-16 21:01:00,75.8,71.7,29.94,SSW,212,0.0,0.0,87,0.00,,,0.00,Wunderground v.1.15,2013-06-17 01:01:00,
2013-06-16 21:02:00,75.8,72.0,29.94,SSW,211,0.0,0.0,88,0.00,,,0.01,Wunderground v.1.15,2013-06-17 01:02:00,
2013-06-16 21:03:00,75.7,71.9,29.94,SSW,212,0.0,0.0,88,0.00,,,0.01,Wunderground v.1.15,2013-06-17 01:03:00,
2013-06-16 21:05:00,75.6,71.8,29.94,SSW,212,0.0,0.0,88,0.00,,,0.01,Wunderground v.1.15,2013-06-17 01:05:00,
2013-06-16 21:06:00,75.5,71.7,29.94,SSW,211,0.0,0.0,88,0.00,,,0.01,Wunderground v.1.15,2013-06-17 01:06:00,
2013-06-16 21:08:00,75.4,71.9,29.94,SSW,212,0.0,0.0,89,0.00,,,0.01,Wunderground v.1.15,2013-06-17 01:08:00,
2013-06-16 21:09:00,75.3,71.8,29.94,SSW,212,0.0,1.0,89,0.00,,,0.01,Wunderground v.1.15,2013-06-17 01:09:00,
2013-06-16 21:10:00,75.2,71.7,29.94,SSW,212,0.0,0.0,89,0.00,,,0.01,Wunderground v.1.15,2013-06-17 01:10:00,
2013-06-16 21:11:00,75.1,71.6,29.94,SSW,212,0.0,2.0,89,0.00,,,0.01,Wunderground v.1.15,2013-06-17 01:11:00,
2013-06-16 21:13:00,75.0,71.5,29.94,SSW,211,0.0,2.0,89,0.00,,,0.01,Wunderground v.1.15,2013-06-17 01:13:00,
2013-06-16 21:15:00,74.8,71.3,29.94,SSW,212,2.0,2.0,89,0.00,,,0.01,Wunderground v.1.15,2013-06-17 01:15:00,
2013-06-16 21:16:00,74.6,71.1,29.94,SSW,212,1.0,2.0,89,0.00,,,0.01,Wunderground v.1.15,2013-06-17 01:16:00,
2013-06-16 21:17:00,74.6,71.1,29.94,SSW,212,0.0,2.0,89,0.00,,,0.01,Wunderground v.1.15,2013-06-17 01:17:00,
2013-06-16 21:18:00,74.5,71.0,29.95,SSW,212,0.0,2.0,89,0.00,,,0.01,Wunderground v.1.15,2013-06-17 01:18:00,
2013-06-16 21:20:00,74.4,71.3,29.94,SSW,211,0.0,0.0,90,0.00,,,0.01,Wunderground v.1.15,2013-06-17 01:20:00,
2013-06-16 21:21:00,74.3,71.2,29.94,SSW,212,0.0,1.0,90,0.00,,,0.01,Wunderground v.1.15,2013-06-17 01:21:00,
2013-06-16 21:22:00,74.3,71.2,29.94,SSW,212,0.0,1.0,90,0.00,,,0.01,Wunderground v.1.15,2013-06-17 01:22:00,
2013-06-16 21:23:00,74.3,71.2,29.95,SSW,212,0.0,1.0,90,0.00,,,0.01,Wunderground v.1.15,2013-06-17 01:23:00,
2013-06-16 21:25:00,74.1,71.3,29.95,SSW,212,0.0,1.0,91,0.00,,,0.02,Wunderground v.1.15,2013-06-17 01:25:00,
2013-06-16 21:27:00,74.1,71.3,29.95,SSW,212,0.0,1.0,91,0.00,,,0.02,Wunderground v.1.15,2013-06-17 01:27:00,
2013-06-16 21:28:00,74.0,71.2,29.95,SSW,212,1.0,1.0,91,0.00,,,0.02,Wunderground v.1.15,2013-06-17 01:28:00,
2013-06-16 21:31:00,73.9,71.1,29.95,SSW,212,1.0,1.0,91,0.00,,,0.02,Wunderground v.1.15,2013-06-17 01:31:00,
2013-06-16 21:32:00,73.9,71.1,29.96,SSW,211,0.0,1.0,91,0.00,,,0.02,Wunderground v.1.15,2013-06-17 01:32:00,
2013-06-16 21:33:00,73.8,71.0,29.96,SSW,212,0.0,1.0,91,0.00,,,0.02,Wunderground v.1.15,2013-06-17 01:33:00,
2013-06-16 21:36:00,73.7,70.9,29.96,SSW,212,0.0,1.0,91,0.00,,,0.02,Wunderground v.1.15,2013-06-17 01:36:00,
2013-06-16 21:37:00,73.7,71.2,29.96,SSW,212,0.0,1.0,92,0.00,,,0.02,Wunderground v.1.15,2013-06-17 01:37:00,
2013-06-16 21:38:00,73.7,71.2,29.96,SSW,211,0.0,1.0,92,0.00,,,0.02,Wunderground v.1.15,2013-06-17 01:38:00,
2013-06-16 21:39:00,73.7,71.2,29.96,SSW,212,0.0,1.0,92,0.00,,,0.02,Wunderground v.1.15,2013-06-17 01:39:00,
2013-06-16 21:41:00,73.5,71.0,29.96,SSW,211,0.0,0.0,92,0.00,,,0.02,Wunderground v.1.15,2013-06-17 01:41:00,
2013-06-16 21:42:00,73.5,71.0,29.96,SSW,211,0.0,0.0,92,0.00,,,0.02,Wunderground v.1.15,2013-06-17 01:42:00,
2013-06-16 21:43:00,73.5,71.0,29.96,SSW,212,0.0,0.0,92,0.00,,,0.02,Wunderground v.1.15,2013-06-17 01:43:00,
2013-06-16 21:44:00,73.5,71.0,29.96,SSW,212,0.0,0.0,92,0.00,,,0.02,Wunderground v.1.15,2013-06-17 01:44:00,
2013-06-16 21:47:00,73.4,70.9,29.95,SSW,212,0.0,0.0,92,0.00,,,0.02,Wunderground v.1.15,2013-06-17 01:47:00,
2013-06-16 21:48:00,73.3,70.8,29.96,SSW,212,0.0,0.0,92,0.00,,,0.02,Wunderground v.1.15,2013-06-17 01:48:00,
2013-06-16 21:50:00,73.3,70.8,29.96,SSW,211,0.0,0.0,92,0.00,,,0.02,Wunderground v.1.15,2013-06-17 01:50:00,
2013-06-16 21:52:00,73.3,70.8,29.96,SSW,212,0.0,0.0,92,0.00,,,0.02,Wunderground v.1.15,2013-06-17 01:52:00,
2013-06-16 21:54:00,73.2,70.7,29.96,SSW,212,0.0,0.0,92,0.00,,,0.02,Wunderground v.1.15,2013-06-17 01:54:00,
2013-06-16 21:55:00,73.2,70.7,29.96,SSW,211,0.0,0.0,92,0.00,,,0.02,Wunderground v.1.15,2013-06-17 01:55:00,
2013-06-16 21:57:00,73.1,70.6,29.96,SSW,212,0.0,0.0,92,0.00,,,0.02,Wunderground v.1.15,2013-06-17 01:57:00,
2013-06-16 21:59:00,73.0,70.5,29.96,SSW,211,0.0,0.0,92,0.00,,,0.02,Wunderground v.1.15,2013-06-17 01:59:00,
2013-06-16 22:01:00,73.0,70.9,29.96,SSW,211,0.0,0.0,93,0.00,,,0.02,Wunderground v.1.15,2013-06-17 02:01:00,
2013-06-16 22:02:00,73.0,70.9,29.96,SSW,212,0.0,0.0,93,0.00,,,0.02,Wunderground v.1.15,2013-06-17 02:02:00,
2013-06-16 22:03:00,73.0,70.9,29.96,SSW,212,0.0,0.0,93,0.00,,,0.02,Wunderground v.1.15,2013-06-17 02:03:00,
2013-06-16 22:04:00,73.0,70.9,29.96,SSW,212,0.0,1.0,93,0.00,,,0.02,Wunderground v.1.15,2013-06-17 02:04:00,
2013-06-16 22:06:00,73.0,70.9,29.97,SSW,211,0.0,1.0,93,0.00,,,0.02,Wunderground v.1.15,2013-06-17 02:06:00,
2013-06-16 22:07:00,73.0,70.9,29.96,SSW,211,0.0,1.0,93,0.00,,,0.02,Wunderground v.1.15,2013-06-17 02:07:00,
2013-06-16 22:08:00,73.0,70.9,29.96,SSW,211,0.0,1.0,93,0.00,,,0.02,Wunderground v.1.15,2013-06-17 02:08:00,
2013-06-16 22:09:00,72.9,70.8,29.97,SSW,211,0.0,0.0,93,0.00,,,0.02,Wunderground v.1.15,2013-06-17 02:09:00,
2013-06-16 22:11:00,72.9,70.8,29.97,SSW,212,0.0,0.0,93,0.00,,,0.02,Wunderground v.1.15,2013-06-17 02:11:00,
2013-06-16 22:12:00,72.9,70.8,29.97,SSW,212,1.0,1.0,93,0.00,,,0.02,Wunderground v.1.15,2013-06-17 02:12:00,
2013-06-16 22:13:00,72.9,70.8,29.97,SSW,212,0.0,1.0,93,0.00,,,0.02,Wunderground v.1.15,2013-06-17 02:13:00,
2013-06-16 22:15:00,72.9,71.1,29.97,SSW,211,0.0,1.0,94,0.00,,,0.02,Wunderground v.1.15,2013-06-17 02:15:00,
2013-06-16 22:16:00,72.8,71.0,29.97,SSW,212,0.0,1.0,94,0.00,,,0.02,Wunderground v.1.15,2013-06-17 02:16:00,
2013-06-16 22:17:00,72.8,71.0,29.97,SSW,212,0.0,1.0,94,0.00,,,0.02,Wunderground v.1.15,2013-06-17 02:17:00,
2013-06-16 22:19:00,72.8,70.7,29.97,SSW,212,0.0,1.0,93,0.00,,,0.02,Wunderground v.1.15,2013-06-17 02:19:00,
2013-06-16 22:20:00,72.8,70.7,29.97,SSW,212,0.0,0.0,93,0.00,,,0.02,Wunderground v.1.15,2013-06-17 02:20:00,
2013-06-16 22:21:00,72.7,70.6,29.97,SSW,212,0.0,0.0,93,0.00,,,0.02,Wunderground v.1.15,2013-06-17 02:21:00,
2013-06-16 22:23:00,72.7,70.6,29.97,SSW,211,0.0,0.0,93,0.00,,,0.02,Wunderground v.1.15,2013-06-17 02:23:00,
2013-06-16 22:24:00,72.6,70.5,29.97,SSW,211,0.0,0.0,93,0.00,,,0.02,Wunderground v.1.15,2013-06-17 02:24:00,
2013-06-16 22:25:00,72.6,70.5,29.97,SSW,212,0.0,0.0,93,0.00,,,0.02,Wunderground v.1.15,2013-06-17 02:25:00,
2013-06-16 22:26:00,72.5,70.0,29.97,SSW,211,0.0,0.0,92,0.00,,,0.02,Wunderground v.1.15,2013-06-17 02:26:00,
2013-06-16 22:28:00,72.4,69.9,29.97,SSW,212,0.0,0.0,92,0.00,,,0.02,Wunderground v.1.15,2013-06-17 02:28:00,
2013-06-16 22:29:00,72.3,69.8,29.97,SSW,211,0.0,0.0,92,0.00,,,0.02,Wunderground v.1.15,2013-06-17 02:29:00,
2013-06-16 22:30:00,72.3,69.8,29.97,SSW,211,0.0,0.0,92,0.00,,,0.02,Wunderground v.1.15,2013-06-17 02:30:00,
2013-06-16 22:32:00,72.2,69.7,29.97,SSW,212,0.0,0.0,92,0.00,,,0.02,Wunderground v.1.15,2013-06-17 02:32:00,
2013-06-16 22:33:00,72.1,69.6,29.97,SSW,212,0.0,0.0,92,0.00,,,0.02,Wunderground v.1.15,2013-06-17 02:33:00,
2013-06-16 22:34:00,72.1,69.6,29.97,SSW,211,0.0,0.0,92,0.00,,,0.02,Wunderground v.1.15,2013-06-17 02:34:00,
2013-06-16 22:35:00,72.0,69.5,29.97,SSW,212,0.0,0.0,92,0.00,,,0.02,Wunderground v.1.15,2013-06-17 02:35:00,
2013-06-16 22:37:00,71.9,69.4,29.97,SSW,211,0.0,0.0,92,0.00,,,0.02,Wunderground v.1.15,2013-06-17 02:37:00,
2013-06-16 22:39:00,71.9,69.4,29.97,SSW,212,1.0,2.0,92,0.00,,,0.02,Wunderground v.1.15,2013-06-17 02:39:00,
2013-06-16 22:40:00,71.8,69.3,29.97,SSW,212,0.0,0.0,92,0.00,,,0.02,Wunderground v.1.15,2013-06-17 02:40:00,
2013-06-16 22:42:00,71.7,69.3,29.97,SSW,211,0.0,2.0,92,0.00,,,0.02,Wunderground v.1.15,2013-06-17 02:42:00,
2013-06-16 22:44:00,71.6,69.2,29.97,SSW,211,0.0,2.0,92,0.00,,,0.02,Wunderground v.1.15,2013-06-17 02:44:00,
2013-06-16 22:45:00,71.6,69.2,29.97,SSW,212,0.0,2.0,92,0.00,,,0.02,Wunderground v.1.15,2013-06-17 02:45:00,
2013-06-16 22:46:00,71.5,69.1,29.97,SSW,211,0.0,2.0,92,0.00,,,0.02,Wunderground v.1.15,2013-06-17 02:46:00,
2013-06-16 22:47:00,71.5,69.1,29.97,SSW,212,0.0,2.0,92,0.00,,,0.02,Wunderground v.1.15,2013-06-17 02:47:00,
2013-06-16 22:49:00,71.5,69.4,29.97,SSW,212,0.0,2.0,93,0.00,,,0.02,Wunderground v.1.15,2013-06-17 02:49:00,
2013-06-16 22:50:00,71.4,69.3,29.97,SSW,212,0.0,0.0,93,0.00,,,0.02,Wunderground v.1.15,2013-06-17 02:50:00,
2013-06-16 22:52:00,71.3,69.2,29.97,SSW,211,0.0,0.0,93,0.00,,,0.02,Wunderground v.1.15,2013-06-17 02:52:00,
2013-06-16 22:53:00,71.3,69.2,29.97,SSW,212,0.0,0.0,93,0.00,,,0.02,Wunderground v.1.15,2013-06-17 02:53:00,
2013-06-16 22:54:00,71.3,68.9,29.97,SSW,212,0.0,0.0,92,0.00,,,0.02,Wunderground v.1.15,2013-06-17 02:54:00,
2013-06-16 22:55:00,71.3,68.9,29.96,SSW,212,0.0,0.0,92,0.00,,,0.02,Wunderground v.1.15,2013-06-17 02:55:00,
2013-06-16 22:58:00,71.2,69.1,29.97,SSW,212,0.0,0.0,93,0.00,,,0.02,Wunderground v.1.15,2013-06-17 02:58:00,
2013-06-16 22:59:00,71.2,69.1,29.97,SSW,212,0.0,0.0,93,0.00,,,0.02,Wunderground v.1.15,2013-06-17 02:59:00,
2013-06-16 23:01:00,71.2,69.1,29.97,SSW,212,0.0,0.0,93,0.00,,,0.02,Wunderground v.1.15,2013-06-17 03:01:00,
2013-06-16 23:03:00,71.1,69.0,29.97,SSW,212,0.0,0.0,93,0.00,,,0.02,Wunderground v.1.15,2013-06-17 03:03:00,
2013-06-16 23:04:00,71.1,69.0,29.97,SSW,211,0.0,0.0,93,0.00,,,0.02,Wunderground v.1.15,2013-06-17 03:04:00,
2013-06-16 23:06:00,71.0,68.9,29.97,SSW,212,0.0,0.0,93,0.00,,,0.02,Wunderground v.1.15,2013-06-17 03:06:00,
2013-06-16 23:07:00,71.0,68.9,29.97,SSW,212,0.0,0.0,93,0.00,,,0.02,Wunderground v.1.15,2013-06-17 03:07:00,
2013-06-16 23:08:00,71.0,68.9,29.97,SSW,212,0.0,0.0,93,0.00,,,0.02,Wunderground v.1.15,2013-06-17 03:08:00,
2013-06-16 23:09:00,71.0,68.9,29.97,SSW,212,0.0,0.0,93,0.00,,,0.02,Wunderground v.1.15,2013-06-17 03:09:00,
2013-06-16 23:12:00,70.9,68.8,29.97,SSW,212,0.0,0.0,93,0.00,,,0.02,Wunderground v.1.15,2013-06-17 03:12:00,
2013-06-16 23:13:00,70.9,68.8,29.97,SSW,212,0.0,0.0,93,0.00,,,0.02,Wunderground v.1.15,2013-06-17 03:13:00,
2013-06-16 23:14:00,70.9,68.8,29.97,SSW,212,0.0,0.0,93,0.00,,,0.02,Wunderground v.1.15,2013-06-17 03:14:00,
2013-06-16 23:17:00,70.8,68.7,29.97,SSW,212,0.0,0.0,93,0.00,,,0.02,Wunderground v.1.15,2013-06-17 03:17:00,
2013-06-16 23:19:00,70.8,69.0,29.97,SSW,212,0.0,0.0,94,0.00,,,0.02,Wunderground v.1.15,2013-06-17 03:19:00,
2013-06-16 23:20:00,70.7,68.9,29.97,SSW,212,0.0,0.0,94,0.00,,,0.02,Wunderground v.1.15,2013-06-17 03:20:00,
2013-06-16 23:22:00,70.7,68.9,29.97,SSW,212,0.0,0.0,94,0.00,,,0.02,Wunderground v.1.15,2013-06-17 03:22:00,
2013-06-16 23:24:00,70.6,68.5,29.97,SSW,211,0.0,0.0,93,0.00,,,0.02,Wunderground v.1.15,2013-06-17 03:24:00,
2013-06-16 23:26:00,70.6,68.8,29.97,SSW,212,0.0,0.0,94,0.00,,,0.02,Wunderground v.1.15,2013-06-17 03:26:00,
2013-06-16 23:27:00,70.6,68.8,29.97,SSW,212,0.0,0.0,94,0.00,,,0.02,Wunderground v.1.15,2013-06-17 03:27:00,
2013-06-16 23:29:00,70.6,68.8,29.97,SSW,212,0.0,0.0,94,0.00,,,0.02,Wunderground v.1.15,2013-06-17 03:29:00,
2013-06-16 23:31:00,70.5,68.7,29.97,SSW,211,0.0,1.0,94,0.00,,,0.02,Wunderground v.1.15,2013-06-17 03:31:00,
2013-06-16 23:33:00,70.5,68.7,29.97,SSW,211,0.0,1.0,94,0.00,,,0.02,Wunderground v.1.15,2013-06-17 03:33:00,
2013-06-16 23:34:00,70.5,68.7,29.97,SSW,211,0.0,1.0,94,0.00,,,0.02,Wunderground v.1.15,2013-06-17 03:34:00,
2013-06-16 23:35:00,70.4,68.6,29.97,SSW,211,0.0,1.0,94,0.00,,,0.02,Wunderground v.1.15,2013-06-17 03:35:00,
2013-06-16 23:36:00,70.4,68.6,29.97,SSW,212,0.0,1.0,94,0.00,,,0.02,Wunderground v.1.15,2013-06-17 03:36:00,
2013-06-16 23:38:00,70.4,68.6,29.97,SSW,211,0.0,1.0,94,0.00,,,0.02,Wunderground v.1.15,2013-06-17 03:38:00,
2013-06-16 23:39:00,70.4,68.6,29.97,SSW,212,0.0,0.0,94,0.00,,,0.02,Wunderground v.1.15,2013-06-17 03:39:00,
2013-06-16 23:40:00,70.4,68.6,29.97,SSW,211,0.0,0.0,94,0.00,,,0.02,Wunderground v.1.15,2013-06-17 03:40:00,
2013-06-16 23:41:00,70.4,68.6,29.97,SSW,211,0.0,0.0,94,0.00,,,0.02,Wunderground v.1.15,2013-06-17 03:41:00,
2013-06-16 23:43:00,70.4,68.9,29.97,SSW,212,0.0,0.0,95,0.00,,,0.02,Wunderground v.1.15,2013-06-17 03:43:00,
2013-06-16 23:45:00,70.4,68.9,29.97,SSW,212,0.0,0.0,95,0.00,,,0.02,Wunderground v.1.15,2013-06-17 03:45:00,
2013-06-16 23:47:00,70.4,68.9,29.97,SSW,211,0.0,0.0,95,0.00,,,0.02,Wunderground v.1.15,2013-06-17 03:47:00,
2013-06-16 23:48:00,70.4,68.9,29.97,SSW,212,0.0,0.0,95,0.00,,,0.02,Wunderground v.1.15,2013-06-17 03:48:00,
2013-06-16 23:50:00,70.4,68.9,29.97,SSW,212,1.0,1.0,95,0.00,,,0.02,Wunderground v.1.15,2013-06-17 03:50:00,
2013-06-16 23:52:00,70.3,68.8,29.97,SSW,212,0.0,2.0,95,0.00,,,0.02,Wunderground v.1.15,2013-06-17 03:52:00,
2013-06-16 23:53:00,70.3,68.8,29.97,SSW,211,0.0,2.0,95,0.00,,,0.02,Wunderground v.1.15,2013-06-17 03:53:00,
2013-06-16 23:55:00,70.3,68.8,29.97,SSW,212,0.0,2.0,95,0.00,,,0.02,Wunderground v.1.15,2013-06-17 03:55:00,
2013-06-16 23:56:00,70.2,68.7,29.97,SSW,212,0.0,2.0,95,0.00,,,0.02,Wunderground v.1.15,2013-06-17 03:56:00,
2013-06-16 23:57:00,70.2,68.7,29.97,SSW,212,0.0,2.0,95,0.00,,,0.02,Wunderground v.1.15,2013-06-17 03:57:00,
2013-06-16 23:58:00,70.2,68.7,29.97,SSW,212,0.0,2.0,95,0.00,,,0.02,Wunderground v.1.15,2013-06-17 03:58:00,
2013-06-16 23:59:00,70.2,68.7,29.97,SSW,212,0.0,2.0,95,0.00,,,0.02,Wunderground v.1.15,2013-06-17 03:59:00,